GFSFLT1_sfc_dewp_000.txt.gz
Dewpoint
54 56 59 59 60 61 63 65 66 68 69 69 71 72 72 73 71 66 64 64 62 62 62 63 64 63 63 61 62 63 64 64 64
53 56 58 60 61 62 63 64 66 68 69 69 71 71 72 70 68 64 63 63 62 62 63 62 63 62 63 61 61 64 64 63 64
51 54 58 59 62 62 63 64 65 67 68 69 70 70 70 68 66 63 62 62 62 61 61 62 62 62 62 62 62 63 64 63 63
49 52 56 58 62 63 64 64 65 67 68 69 70 69 67 65 63 62 61 62 62 61 61 62 62 62 62 62 62 63 63 63 63
48 52 56 58 61 63 64 64 64 66 67 68 69 69 66 64 61 62 61 62 63 62 62 62 62 62 63 63 63 63 63 63 64
49 53 56 57 60 62 63 63 64 65 67 67 68 68 65 63 62 63 63 63 63 63 62 61 61 63 63 62 62 61 61 63 63
49 52 55 57 58 60 61 62 64 65 66 67 68 66 64 63 63 62 64 64 63 63 62 62 62 62 62 61 60 60 61 62 62
51 50 52 56 57 59 60 61 63 64 65 67 67 66 64 64 64 64 64 64 64 63 62 62 62 62 61 61 60 59 62 63 62
50 51 50 51 55 58 59 60 61 64 66 66 68 67 65 66 65 65 65 65 65 63 62 62 62 61 61 61 60 60 61 63 62
48 49 51 52 52 55 56 58 61 64 66 68 68 67 67 66 65 64 64 65 65 63 62 62 61 61 61 61 62 59 59 61 64
47 50 53 53 53 55 57 58 60 64 66 68 68 68 68 66 64 64 64 63 62 63 62 61 61 62 62 62 62 58 58 60 63
48 52 54 56 56 56 59 61 62 64 66 67 68 68 66 66 65 64 65 63 63 62 63 63 62 63 63 62 62 58 57 59 62
48 51 53 55 57 59 61 63 64 64 65 67 67 67 66 66 65 63 63 64 64 63 63 63 64 63 62 60 62 58 58 58 61
53 56 57 59 62 63 63 64 65 64 64 65 67 66 66 67 66 66 65 64 63 63 64 63 63 62 60 61 62 62 57 54 59
54 55 57 59 61 63 65 64 64 63 64 65 66 66 66 65 65 65 63 61 61 62 61 60 60 61 59 59 61 56 55 52 54
57 59 60 63 64 64 63 63 64 63 63 64 64 63 63 64 63 63 62 61 61 61 60 60 60 61 61 62 58 55 51 51 51
58 60 61 63 63 62 61 62 62 63 64 64 63 62 62 63 63 62 61 62 62 61 60 59 61 61 61 59 56 54 51 50 50
60 60 62 62 61 61 62 63 62 63 64 62 61 61 61 61 61 62 62 61 60 61 59 57 61 60 59 56 54 51 48 48 48
61 61 62 61 61 62 62 61 62 62 62 62 62 61 60 60 61 61 60 54 52 46 45 45 44 46 51 50 47 43 42 40 40
59 61 62 62 61 61 61 61 61 62 61 60 60 60 58 56 56 59 57 55 54 52 47 43 41 41 41 41 41 40 40 39 39

GFSFLT1_sfc_dewp_003.txt.gz
Dewpoint
54 55 56 58 61 63 65 66 68 69 71 73 73 73 75 76 75 73 73 73 70 68 68 67 67 67 68 69 67 66 67 64 63
53 54 56 58 60 62 65 66 69 70 71 72 73 72 74 75 76 75 74 74 72 69 70 66 67 67 68 67 64 65 67 61 64
52 55 57 58 60 62 64 65 67 69 70 72 72 72 73 73 74 75 75 74 71 69 68 67 67 67 66 65 64 64 67 63 64
51 55 58 59 61 62 64 65 66 68 69 71 71 72 73 74 74 74 74 72 71 68 68 67 67 67 65 65 65 65 66 66 64
49 56 60 60 61 62 62 64 65 65 67 67 70 72 73 73 73 71 70 71 67 67 67 67 67 66 66 65 65 65 66 65 61
53 56 58 60 60 63 63 64 67 65 67 66 67 70 70 71 71 70 71 65 66 65 66 66 65 65 66 65 65 66 66 65 63
52 55 59 60 61 65 66 67 68 68 67 66 67 68 69 71 70 69 67 67 65 66 65 65 65 66 67 66 66 65 64 63 64
53 54 57 60 61 66 67 68 68 68 67 68 69 70 69 70 70 69 68 66 65 64 65 65 64 64 66 66 64 60 63 64 64
53 53 55 58 60 62 64 65 66 66 67 68 70 70 70 70 69 68 67 68 65 64 64 64 65 65 65 65 62 60 61 63 64
54 54 55 57 59 61 63 63 65 65 67 68 69 70 70 69 69 67 68 67 67 65 63 64 64 65 64 66 65 60 60 62 63
53 54 55 56 55 59 62 60 61 64 66 69 70 70 70 69 68 68 68 68 67 66 64 64 65 65 66 65 65 59 58 61 65
50 53 56 58 57 59 62 61 63 65 66 68 69 69 70 69 68 68 67 67 67 67 65 65 66 64 65 65 65 58 58 61 64
51 54 58 59 61 61 63 64 64 66 66 68 69 69 70 69 68 67 66 67 67 66 66 65 64 65 66 63 66 57 57 61 62
58 58 60 62 62 63 65 67 66 67 68 68 69 70 69 69 69 68 68 68 67 66 66 65 66 66 66 65 65 64 54 55 63
58 59 61 62 64 66 67 67 68 68 69 70 69 70 69 69 68 67 66 67 66 66 66 66 66 65 64 62 64 56 56 54 55
60 63 64 63 63 66 67 68 68 68 68 68 69 69 67 68 68 67 66 65 65 63 64 63 63 60 59 60 63 62 53 51 52
60 62 64 65 66 66 66 67 67 67 68 69 68 67 67 68 67 66 65 63 63 61 60 62 62 62 59 61 60 59 56 54 52
63 65 65 66 66 67 67 67 67 68 68 68 67 67 67 66 65 64 64 61 59 61 63 58 61 59 59 60 59 57 53 52 53
65 65 66 66 67 67 66 66 67 67 68 68 67 66 65 64 62 61 60 59 57 45 45 45 45 45 56 55 48 44 42 42 41
58 60 62 66 67 66 66 66 66 67 67 66 65 64 64 61 61 61 61 59 58 56 47 42 41 42 42 45 42 40 39 39 39

GFSFLT1_sfc_dewp_006.txt.gz
Dewpoint
48 52 50 53 57 59 63 64 66 68 71 74 75 75 76 77 77 73 72 72 67 65 63 62 67 71 69 67 67 67 65 61 61
45 51 52 52 56 59 61 64 67 70 73 73 73 73 75 76 77 75 72 74 73 67 70 63 68 69 68 65 66 65 65 60 63
45 50 52 51 54 57 60 62 65 68 70 72 72 72 73 73 74 75 75 74 74 73 70 70 68 68 65 65 65 64 66 62 63
42 48 52 53 53 55 59 61 63 65 68 70 71 72 74 73 73 73 75 74 75 74 73 71 69 69 66 65 64 65 65 65 62
32 46 52 55 55 56 58 61 61 62 65 67 69 72 74 72 73 73 73 75 75 74 74 70 69 68 67 67 64 65 65 63 61
42 50 53 56 56 58 59 60 63 62 64 64 66 69 70 71 72 72 73 74 74 74 71 69 67 67 68 67 67 65 65 65 64
45 53 56 58 58 61 62 64 67 67 64 64 65 66 69 72 72 72 73 74 72 70 69 68 67 67 67 65 66 66 65 64 64
44 54 56 58 59 64 68 68 68 68 66 67 66 68 68 70 73 73 73 73 71 68 68 67 63 66 63 65 66 63 65 64 62
44 53 55 58 61 63 66 66 68 68 69 68 69 70 69 71 73 74 73 73 70 69 68 66 66 64 63 63 63 59 61 63 62
45 52 55 58 60 62 65 66 68 68 69 69 70 71 71 72 73 73 72 71 70 68 67 67 65 64 64 64 65 60 60 62 61
45 52 55 58 57 61 65 64 64 66 68 70 70 72 72 72 72 72 71 71 69 68 65 65 66 66 66 65 64 61 60 62 64
50 54 56 58 59 62 65 63 65 66 67 68 69 70 71 72 71 71 69 69 69 69 66 65 66 66 66 66 66 58 58 62 63
49 54 56 58 59 61 62 63 63 65 65 68 69 70 71 71 71 71 70 70 70 69 68 66 64 65 66 63 68 57 56 60 61
54 57 60 61 61 60 63 63 64 65 66 66 68 70 71 71 71 71 71 71 70 69 68 67 67 66 66 67 65 65 55 56 64
59 59 58 57 61 64 65 65 66 67 68 70 71 71 71 70 71 69 69 70 69 67 68 68 66 69 68 67 67 60 55 54 56
56 56 56 58 61 65 67 69 69 69 72 72 72 70 69 70 70 69 69 68 67 65 67 64 65 67 64 69 64 61 54 53 53
59 60 60 60 62 65 68 70 70 71 71 71 71 70 70 69 69 69 68 67 67 66 64 63 67 66 64 64 64 61 59 58 58
61 62 62 62 63 66 68 69 70 70 70 70 69 69 69 67 66 67 67 63 59 62 61 57 60 60 61 60 64 59 55 53 55
64 65 65 66 66 68 69 69 69 70 70 70 69 66 65 64 64 65 65 63 60 44 45 46 46 45 55 58 50 45 42 41 42
57 61 63 66 66 67 68 68 68 69 69 69 68 65 66 63 61 60 61 61 58 56 49 42 41 41 42 45 44 40 40 39 40

GFSFLT1_sfc_dewp_009.txt.gz
Dewpoint
36 47 49 49 54 58 63 64 68 70 74 77 78 77 78 79 78 71 70 73 68 65 63 64 74 71 70 69 67 67 68 63 62
32 42 48 50 51 55 61 63 68 70 74 76 77 75 78 78 78 77 72 75 75 68 71 64 67 70 69 68 66 67 67 61 65
33 38 47 49 50 53 58 60 65 69 72 75 75 75 76 76 77 78 77 78 76 74 72 72 71 71 70 68 68 68 69 65 66
31 37 45 49 50 52 56 58 62 65 69 73 74 74 75 76 75 76 77 76 76 76 74 74 72 73 71 68 68 68 69 67 65
32 37 44 49 50 52 54 58 59 61 64 66 70 73 75 76 76 76 75 77 77 77 76 75 73 72 71 68 67 66 68 66 64
36 37 41 48 50 52 54 56 60 58 62 61 64 71 71 74 74 75 75 76 76 77 77 75 72 72 72 68 68 68 68 68 67
36 39 49 48 52 55 57 60 63 63 61 59 61 65 67 72 74 75 74 76 77 77 77 76 73 72 70 69 68 68 67 67 67
34 36 49 53 54 61 65 65 66 66 63 65 63 68 68 71 75 75 76 76 77 77 76 75 73 71 69 69 65 62 68 65 65
34 35 38 53 57 59 65 66 68 68 68 67 67 71 70 73 76 77 76 77 78 77 75 74 72 69 67 65 61 60 62 65 62
36 36 38 51 56 60 63 64 69 69 70 69 71 73 74 75 77 77 78 77 76 75 73 73 71 68 64 64 66 62 61 63 62
38 41 41 48 53 60 65 63 64 68 69 73 74 75 75 76 77 77 77 76 75 74 72 72 69 67 66 67 67 61 60 63 64
36 38 39 49 55 60 68 66 69 70 69 72 72 72 74 75 74 75 74 74 73 72 71 70 67 66 66 68 68 59 58 62 65
44 45 40 54 58 61 65 68 66 68 68 69 70 72 72 74 75 74 72 73 73 72 72 70 66 65 68 66 68 58 57 61 64
49 48 55 60 61 66 68 68 66 69 69 68 68 70 71 73 73 73 73 73 73 72 72 70 69 67 69 69 68 67 56 56 65
52 54 58 59 63 66 66 68 69 70 71 72 73 73 72 73 73 71 71 72 72 71 71 69 69 69 69 66 70 61 55 54 55
59 60 60 60 61 66 66 70 70 71 75 74 74 73 73 72 72 72 72 72 70 68 69 67 67 65 66 69 71 68 56 54 55
56 57 60 61 63 65 68 70 70 72 73 73 73 72 71 71 70 69 69 68 67 66 65 65 65 65 67 67 66 65 62 60 60
59 60 62 63 64 66 68 70 71 70 72 72 70 71 71 70 68 68 67 64 63 65 62 60 62 64 65 61 59 63 57 57 59
61 61 63 65 65 67 69 69 70 71 71 71 69 69 67 67 66 66 66 63 58 45 46 45 45 46 54 57 50 45 43 42 43
60 62 63 63 65 67 69 69 70 70 70 70 70 67 66 63 62 62 64 61 61 60 51 43 42 43 45 47 45 41 40 40 41

GFSFLT1_sfc_dewp_012.txt.gz
Dewpoint
46 49 48 51 55 59 63 64 67 70 73 75 76 76 77 77 76 75 74 74 74 73 71 70 73 72 72 73 71 71 71 70 67
39 47 49 50 56 57 63 64 67 69 74 75 76 76 77 77 77 76 74 75 74 74 74 73 71 72 73 71 71 71 72 68 68
36 36 50 51 52 58 61 64 66 69 72 75 76 76 76 76 77 76 75 75 75 73 74 73 73 73 72 71 70 69 71 67 69
35 38 43 49 52 54 60 63 65 67 70 74 76 76 76 76 76 76 75 76 75 75 74 73 73 73 71 71 70 70 70 69 67
38 40 44 47 52 53 57 61 63 66 69 71 74 75 76 76 76 76 76 75 76 75 76 74 73 73 72 71 68 70 68 66 65
43 46 54 48 49 54 56 58 62 64 67 68 72 74 74 75 75 76 76 76 75 77 75 74 72 73 72 71 68 69 68 67 67
43 49 54 53 52 56 56 59 63 64 66 66 69 71 72 73 74 75 74 76 76 75 76 74 74 72 72 71 68 68 67 67 67
42 49 52 56 58 62 61 63 64 64 64 65 66 70 71 73 74 75 75 75 76 76 76 76 75 74 72 71 68 65 68 68 67
44 45 46 55 58 65 66 64 64 64 64 64 66 68 69 72 74 75 75 76 76 76 76 76 76 74 72 71 68 62 64 67 67
45 45 46 56 59 61 64 65 66 64 64 65 66 69 70 71 73 75 75 75 76 76 76 76 75 74 72 70 69 62 62 64 66
45 45 45 48 50 60 65 64 63 66 66 68 68 72 71 72 74 75 76 76 76 76 77 76 75 73 70 69 66 62 61 63 65
39 41 50 49 42 59 65 65 67 69 68 68 71 70 75 73 77 76 76 76 76 77 75 73 72 71 67 67 68 62 59 61 64
33 34 40 49 45 62 67 68 67 69 69 70 69 73 74 77 77 77 77 77 76 74 72 72 71 68 67 65 68 61 58 59 64
47 40 46 62 65 65 69 70 69 70 71 71 72 74 75 76 77 77 77 77 74 72 72 73 70 68 67 68 67 68 55 56 67
57 53 55 64 67 70 71 71 72 73 73 75 76 75 75 76 77 74 74 74 73 73 72 70 69 68 68 69 71 61 55 55 56
55 56 64 63 68 71 72 74 73 73 75 75 74 74 75 75 75 74 74 72 72 71 71 69 68 68 68 70 71 69 55 55 55
63 64 66 66 68 69 71 73 73 75 75 75 75 75 74 73 72 71 72 71 70 69 68 67 67 68 70 70 69 66 64 62 59
64 65 67 68 69 70 72 74 74 74 75 75 73 72 71 70 69 69 67 60 63 67 59 59 69 69 67 65 64 64 60 59 61
66 67 67 68 70 71 72 72 73 74 74 73 72 70 69 68 68 67 65 61 58 46 46 44 44 46 60 55 50 47 45 44 44
61 63 66 68 69 70 71 71 71 72 73 73 71 69 69 67 66 66 65 64 62 58 50 44 43 43 48 50 46 42 41 41 42

GFSFLT1_sfc_dewp_015.txt.gz
Dewpoint
50 50 47 48 55 57 60 62 66 70 71 71 73 74 73 71 74 70 70 71 71 71 70 70 71 70 68 67 65 69 68 66 65
48 45 45 49 52 56 60 62 67 68 72 72 73 73 74 73 72 73 72 72 71 71 69 69 70 70 68 67 66 65 67 66 64
46 46 47 49 51 56 60 61 65 67 72 72 73 72 74 74 73 72 72 73 71 72 70 71 69 70 68 70 66 67 68 65 66
45 45 46 49 52 56 60 62 64 67 70 72 73 74 73 74 74 74 72 73 72 71 71 70 69 70 70 68 67 68 68 64 64
40 42 45 49 52 54 60 62 62 66 71 72 73 74 74 74 74 74 73 72 72 73 70 71 70 70 70 68 67 66 67 64 64
42 43 47 50 50 55 60 61 62 65 68 72 73 74 74 74 73 74 74 73 73 73 73 71 71 71 69 69 68 66 67 65 63
39 47 42 49 50 55 57 61 62 63 67 71 73 74 74 73 73 73 74 74 72 73 74 73 69 70 69 69 68 66 66 65 64
38 42 45 51 51 53 57 60 62 63 65 67 71 72 73 73 73 73 74 74 74 73 73 73 72 70 70 70 68 66 66 65 65
34 34 50 54 54 53 55 57 61 62 64 66 68 71 71 72 72 73 73 74 74 74 73 74 72 72 71 70 69 64 65 65 65
36 38 48 52 54 56 55 58 60 62 64 65 66 69 71 71 71 72 73 73 73 74 74 74 74 73 72 70 70 64 63 65 66
36 39 45 53 54 61 60 60 60 62 63 65 65 66 69 70 71 71 73 73 74 73 74 74 75 74 71 71 69 62 62 63 64
31 32 37 39 54 59 64 61 61 61 62 64 64 65 67 69 70 71 72 73 73 73 74 75 74 72 69 68 67 61 60 61 62
38 42 36 35 41 56 60 64 63 61 61 63 63 63 67 68 69 71 73 73 73 74 74 72 72 69 68 65 66 60 58 59 61
53 53 42 44 51 59 61 65 64 63 62 62 65 64 74 71 73 74 74 75 74 72 71 71 69 67 67 65 65 64 56 56 62
50 49 59 51 62 63 67 67 67 67 66 69 71 74 75 76 76 76 74 73 71 70 71 70 68 66 66 67 66 62 56 55 56
52 62 68 69 69 71 72 71 70 71 73 74 74 74 74 74 73 72 72 71 70 70 69 68 67 66 66 65 67 64 56 54 54
65 66 67 69 70 70 71 73 72 73 73 73 73 73 72 72 71 71 71 70 69 69 68 67 67 67 65 65 65 62 59 58 57
66 66 67 69 70 71 71 72 72 72 73 73 72 71 70 70 70 67 59 53 56 63 55 60 65 66 65 65 64 64 60 58 59
62 61 69 70 70 71 72 72 72 72 72 71 70 68 68 68 65 62 60 57 53 45 46 45 45 51 58 53 55 51 49 51 52
58 60 66 68 69 69 70 70 70 71 70 70 69 68 67 66 64 63 62 60 57 53 49 45 43 44 49 50 47 45 44 43 43

GFSFLT1_sfc_dewp_018.txt.gz
Dewpoint
47 46 49 51 54 57 58 60 65 68 68 67 70 71 70 70 70 69 70 69 70 71 70 70 71 70 68 65 65 66 65 64 64
45 45 46 49 52 56 58 60 65 67 69 68 70 70 71 71 71 70 69 70 71 71 71 70 71 70 67 65 64 67 66 65 63
46 46 46 47 49 55 58 59 64 67 69 69 70 71 70 70 71 72 71 70 71 71 70 70 70 69 67 66 64 65 66 65 64
47 46 47 48 49 53 57 59 64 67 69 69 70 71 71 71 70 70 72 72 72 71 70 69 70 69 67 66 65 64 67 64 65
47 47 48 48 49 50 56 60 63 66 69 69 70 71 72 72 72 72 71 70 72 72 70 69 69 69 68 67 66 65 65 65 64
45 47 47 47 47 51 55 59 61 65 68 70 70 71 71 72 72 73 72 71 70 72 71 70 69 69 69 67 67 66 66 65 64
43 46 43 45 49 51 55 59 61 65 66 70 71 71 71 72 73 73 73 72 72 71 72 70 70 69 69 69 67 66 66 66 64
40 39 43 48 47 52 56 60 61 63 66 69 70 71 72 72 73 73 73 73 72 71 72 72 70 70 69 68 68 67 66 65 64
40 37 38 44 49 52 54 59 61 62 65 69 70 72 72 73 73 73 73 74 74 72 72 73 71 70 69 69 68 65 64 66 66
40 36 39 49 50 52 55 59 61 61 64 68 71 71 72 73 73 73 73 73 73 74 72 72 72 70 70 69 69 64 63 65 66
40 38 39 51 51 52 55 58 61 62 63 66 70 71 72 73 73 73 73 73 73 73 74 72 73 72 71 70 70 63 61 64 67
27 35 42 45 55 54 55 57 60 62 63 65 67 69 70 72 72 72 73 72 73 73 74 74 74 74 72 71 70 61 60 63 66
38 32 35 39 53 60 56 56 58 60 62 64 65 67 69 71 71 71 72 72 73 73 74 74 74 73 72 68 67 58 58 62 63
47 39 37 38 38 54 62 58 58 59 61 63 64 66 67 69 70 71 71 72 73 74 74 73 72 69 67 68 67 63 58 56 61
51 49 50 43 39 42 52 62 59 59 60 62 64 65 65 67 69 70 72 73 74 73 72 70 68 67 67 67 66 61 56 54 56
57 63 65 66 46 47 54 61 61 60 60 62 64 64 67 68 69 71 74 73 72 71 70 69 67 66 66 66 65 63 56 54 54
63 64 64 68 70 68 68 67 64 62 65 68 68 69 73 74 73 73 73 72 71 70 68 67 66 66 66 65 64 61 60 57 56
59 59 56 57 64 69 70 71 72 72 70 73 73 73 73 72 71 69 63 57 64 67 63 66 67 66 65 64 63 62 58 56 59
58 58 58 58 55 56 56 57 72 72 72 72 71 70 69 66 64 63 61 59 56 48 48 48 52 54 61 58 55 50 48 46 47
58 61 58 58 59 60 61 60 62 71 71 71 70 68 66 64 64 63 62 61 58 54 50 45 45 49 50 54 52 48 46 45 45

GFSFLT1_sfc_dewp_021.txt.gz
Dewpoint
48 50 51 53 54 56 58 60 64 65 66 68 69 70 69 69 68 67 67 67 67 68 71 71 71 71 71 67 64 65 64 63 63
47 49 50 51 53 54 57 59 62 65 65 66 70 70 70 69 69 68 68 68 68 69 70 71 71 71 70 67 64 64 64 64 63
46 48 49 50 52 53 56 57 60 64 65 65 67 70 70 69 69 69 69 69 69 69 70 70 70 71 69 67 64 65 65 64 63
46 47 47 49 50 52 54 57 59 63 65 65 65 68 69 69 69 70 69 69 69 70 71 70 70 70 69 67 65 65 65 65 64
47 47 47 47 48 50 53 56 58 63 65 66 66 68 68 69 69 70 70 69 69 70 70 70 70 70 69 67 66 63 65 65 64
45 47 48 47 48 49 52 56 58 63 64 66 66 68 69 69 69 69 70 70 70 71 70 70 69 69 69 67 66 65 63 65 64
47 48 48 48 47 50 52 56 58 62 65 66 67 68 69 69 69 70 69 70 70 70 71 70 69 69 69 68 67 66 65 64 64
42 47 48 46 47 50 52 55 59 61 64 67 67 68 69 69 70 70 71 70 70 70 71 71 69 69 69 69 67 67 66 66 65
41 42 46 46 46 48 51 54 58 60 64 66 68 68 69 69 70 71 71 72 72 71 70 71 70 69 68 69 68 65 64 66 66
33 41 41 41 44 45 47 52 57 59 63 65 68 69 69 70 70 71 72 72 72 72 71 71 70 70 69 69 69 63 63 65 67
36 39 40 39 40 45 49 53 57 59 62 65 68 69 70 70 71 71 72 72 72 72 71 72 72 70 70 69 69 63 61 64 67
29 35 40 41 46 45 50 53 57 60 62 64 68 69 69 70 71 71 72 72 72 73 72 71 72 71 70 70 70 61 60 62 67
34 33 36 43 51 54 52 54 57 60 61 64 67 69 69 71 72 72 72 72 72 73 73 73 72 72 72 68 70 60 58 63 67
45 44 36 37 47 56 54 56 59 60 61 62 65 68 70 70 72 72 72 72 73 73 73 74 73 73 73 70 67 62 57 60 66
60 65 67 65 42 41 54 57 58 60 61 63 64 66 68 70 71 72 72 73 73 73 73 73 73 71 70 69 65 58 57 58 60
58 60 64 68 67 62 54 53 60 58 60 62 63 65 66 68 70 71 72 72 73 73 73 73 70 69 68 66 67 64 56 55 54
56 54 54 61 63 64 62 64 66 62 59 60 62 64 65 66 69 70 72 73 73 73 73 71 69 69 66 66 65 62 60 58 56
56 56 56 54 60 60 58 57 59 59 63 63 62 63 65 67 69 70 71 62 68 72 68 68 68 68 67 65 64 62 59 58 59
58 58 57 57 56 57 59 60 60 59 59 69 66 67 70 71 71 65 62 61 58 54 53 55 55 55 59 62 56 50 49 47 48
58 63 63 61 58 57 58 59 58 59 61 68 71 71 68 66 64 65 65 66 64 62 59 51 46 50 49 52 49 47 45 44 45

GFSFLT1_sfc_dewp_024.txt.gz
Dewpoint
52 54 57 57 58 59 60 62 64 66 67 68 68 68 68 69 69 68 68 68 69 69 70 71 73 72 71 71 69 68 67 65 64
46 49 53 56 57 58 59 61 63 66 67 68 68 68 68 69 69 69 68 69 69 69 71 71 72 72 72 71 68 68 67 65 65
46 47 50 52 55 56 58 59 62 65 66 67 68 68 69 69 69 69 69 69 69 69 70 71 72 72 72 71 68 67 67 66 65
45 46 48 50 52 54 56 57 60 63 65 66 67 69 69 69 69 69 69 69 69 69 70 71 71 72 72 70 69 67 66 66 66
47 48 49 50 51 52 54 56 58 61 64 65 66 69 70 69 70 70 69 69 70 70 70 71 71 71 71 71 69 68 67 66 66
44 50 50 50 50 51 53 55 57 59 62 64 65 66 69 69 69 69 69 70 70 70 71 71 71 71 71 70 69 67 67 67 66
39 46 50 51 50 50 53 55 58 59 61 63 65 65 67 68 69 69 69 70 70 70 71 71 71 71 71 70 69 68 67 67 67
42 46 51 51 50 51 54 56 59 60 62 64 65 66 66 68 69 69 70 71 71 71 71 71 71 70 71 70 69 68 68 67 66
33 42 48 52 52 53 54 56 59 60 63 64 66 67 66 68 69 69 69 70 71 71 71 71 71 70 70 70 69 65 64 67 67
29 32 38 49 51 51 53 55 59 60 62 64 66 67 68 69 69 70 70 70 70 70 70 71 71 70 70 70 70 63 63 65 68
28 31 40 46 49 51 52 53 53 59 62 65 67 67 68 69 70 70 71 71 71 71 71 70 71 71 70 70 70 62 62 64 68
30 33 39 43 46 49 53 53 57 60 62 65 67 68 68 69 70 70 71 71 71 71 71 71 71 71 71 70 70 61 60 63 68
32 35 38 42 46 50 50 54 58 60 61 64 66 68 69 70 70 70 71 71 72 72 72 72 72 72 71 68 71 60 59 63 68
55 50 50 44 50 53 57 58 60 61 61 63 65 67 69 70 71 71 71 71 72 73 73 73 72 72 72 72 71 68 58 58 69
65 66 68 66 54 53 53 60 62 63 63 64 67 69 69 70 71 71 71 72 72 73 73 73 72 72 72 72 72 64 56 57 62
57 61 64 67 65 63 62 65 64 62 64 65 66 68 69 71 71 72 72 73 72 72 73 72 72 71 71 71 70 61 55 57 59
55 55 55 63 62 60 59 62 63 63 65 69 66 67 68 70 71 71 72 73 73 72 72 72 71 71 71 70 66 64 62 63 61
60 60 59 57 57 59 59 60 60 61 61 68 69 65 67 68 70 70 73 65 68 73 73 71 72 71 70 67 66 65 60 60 61
61 60 60 60 61 61 61 61 61 61 61 66 71 68 66 68 70 71 63 61 57 49 54 54 52 54 62 62 56 51 50 51 49
60 61 62 61 60 62 62 62 63 64 64 62 68 70 69 69 68 65 63 66 65 60 54 52 52 53 54 55 56 50 47 46 45

GFSFLT1_sfc_dewp_027.txt.gz
Dewpoint
54 57 58 60 62 64 66 66 67 68 70 72 73 73 74 74 74 71 71 72 70 69 69 70 74 74 74 74 74 73 73 71 69
51 55 57 59 61 63 65 66 67 68 70 71 72 72 73 73 74 73 72 73 74 70 73 70 73 74 74 75 74 74 73 69 70
45 48 54 57 60 61 63 64 66 67 69 70 71 72 72 72 72 73 73 73 73 73 73 74 73 74 74 74 74 74 73 71 70
42 46 49 52 58 61 62 62 64 66 68 70 71 71 72 72 72 72 73 73 73 74 74 74 74 74 74 74 74 74 73 72 70
42 48 51 52 53 57 59 62 63 64 66 67 69 71 72 72 72 72 72 72 73 74 74 74 75 74 74 74 74 74 73 72 70
43 48 51 53 52 56 58 60 63 63 65 65 66 70 70 71 72 72 72 72 73 74 74 74 73 74 74 74 73 73 73 72 72
40 46 53 55 55 58 59 61 63 64 64 64 66 67 69 71 72 72 72 73 73 73 74 74 74 75 75 74 73 73 72 72 72
41 43 47 51 55 60 63 63 64 64 64 66 66 69 68 70 72 73 73 73 73 74 74 74 74 74 74 74 72 70 72 72 72
41 40 44 50 57 59 61 63 63 64 65 66 68 69 69 71 73 73 73 73 74 74 74 74 74 74 74 74 71 66 66 71 71
42 41 44 48 54 58 60 60 63 63 65 66 68 69 70 71 72 73 73 73 74 74 74 74 74 74 74 74 74 64 64 66 71
40 42 43 48 43 52 61 57 56 63 64 68 69 70 70 71 71 72 73 73 73 74 74 74 74 74 74 74 73 63 62 65 72
42 43 45 46 43 49 61 61 62 65 65 67 69 69 70 71 71 72 73 73 73 73 73 74 74 74 74 74 74 61 61 64 70
36 38 41 45 46 52 54 61 59 63 64 66 68 69 70 71 72 72 72 73 74 74 73 73 72 73 74 71 74 61 59 63 69
48 49 47 47 48 52 57 59 59 65 65 66 67 68 69 72 73 74 73 73 74 74 74 73 74 73 74 74 73 72 58 58 71
66 66 64 50 53 59 64 64 63 66 68 68 69 70 71 74 74 72 71 74 74 75 74 74 74 74 72 73 74 65 57 57 62
66 67 67 65 64 66 67 67 67 67 69 69 70 71 73 74 74 74 74 74 74 72 72 72 72 72 72 72 72 73 57 55 57
62 65 65 63 63 64 65 68 69 70 71 71 70 71 72 73 74 74 75 73 73 72 72 71 70 71 71 71 72 70 63 62 63
59 60 61 62 63 63 64 65 65 64 65 71 72 70 70 71 71 72 73 74 73 72 72 71 72 72 71 72 67 64 58 61 64
62 62 63 63 63 63 64 65 65 65 66 65 67 68 68 67 67 68 71 73 69 54 53 55 54 56 67 68 57 50 51 51 51
60 63 63 63 65 66 66 66 66 67 68 67 66 66 67 67 66 66 72 67 69 65 56 48 50 51 52 53 53 50 50 50 50

GFSFLT1_sfc_dewp_030.txt.gz
Dewpoint
45 52 55 57 60 62 64 64 67 68 71 74 74 74 76 77 77 72 72 74 69 69 67 68 72 73 74 75 75 75 75 73 72
35 48 55 57 59 61 63 66 68 70 72 75 74 72 76 77 77 76 72 75 75 70 74 68 71 72 74 74 75 75 76 72 73
37 46 54 56 58 59 62 64 66 69 72 73 74 73 74 74 75 77 76 76 76 75 74 74 72 73 73 74 75 75 76 73 73
36 43 51 53 55 58 60 62 65 66 69 71 72 73 74 74 73 74 75 75 76 77 75 76 75 75 74 73 74 75 76 75 73
36 42 44 47 50 55 57 60 62 64 66 67 70 72 74 75 75 75 74 75 76 77 77 76 77 76 75 74 73 75 75 74 72
36 39 44 47 47 50 55 58 62 62 64 64 66 71 71 72 73 73 75 76 76 77 77 77 73 76 77 75 74 75 75 74 74
34 41 45 46 47 50 53 59 64 66 62 63 64 66 68 72 74 74 74 76 76 76 77 77 76 76 77 76 75 74 73 73 74
34 36 38 45 52 55 59 61 65 67 64 66 65 69 68 71 74 75 75 76 76 76 77 77 77 77 77 77 73 70 75 75 73
35 35 34 35 45 52 57 60 63 64 68 66 67 70 70 72 75 76 76 76 77 77 77 77 77 76 76 76 72 66 66 72 73
33 36 38 40 43 47 55 58 62 63 68 67 69 71 72 73 75 76 76 76 77 77 77 77 77 76 76 76 76 64 64 67 72
34 34 37 39 35 40 50 53 48 60 62 70 70 72 73 74 75 75 76 77 76 77 76 76 76 76 77 77 76 64 62 65 73
35 38 38 39 38 41 48 48 53 56 62 66 69 71 73 73 74 74 75 76 76 76 76 76 75 75 77 77 77 63 61 65 72
32 36 38 40 40 41 44 54 54 58 60 63 68 70 72 73 74 75 74 76 77 76 76 75 72 74 76 72 77 64 59 65 70
49 47 46 47 49 49 52 57 58 61 62 63 67 68 69 73 75 75 76 77 77 77 76 74 76 74 75 76 75 75 58 59 72
55 52 55 59 56 52 54 60 60 63 69 68 70 71 71 74 75 72 71 77 77 76 76 76 75 74 73 73 76 67 59 58 61
52 56 60 62 52 57 64 67 66 66 70 71 70 71 73 74 74 74 76 76 77 73 75 71 72 70 71 70 73 74 61 57 57
60 63 66 65 62 62 67 69 69 70 72 71 71 71 72 72 73 73 73 71 72 71 70 71 70 70 70 70 71 72 73 67 62
63 65 65 65 65 66 67 68 69 69 71 73 71 71 71 72 71 73 73 73 70 70 72 68 70 70 70 69 70 72 68 65 66
63 64 64 64 64 65 66 66 66 67 68 68 68 69 67 66 65 67 69 69 72 52 54 53 52 53 61 65 61 52 50 50 51
61 64 64 66 66 67 67 67 67 67 68 69 69 68 68 64 63 63 63 66 67 67 65 48 47 47 52 53 53 50 49 48 49

GFSFLT1_sfc_dewp_033.txt.gz
Dewpoint
39 44 50 54 58 60 62 63 66 68 72 76 77 77 77 78 78 72 71 73 67 66 65 65 74 77 76 76 76 76 77 74 73
37 43 48 52 57 59 63 64 67 69 72 75 76 75 77 78 78 77 73 75 75 71 73 66 73 75 76 76 76 77 78 72 75
35 38 46 51 55 58 62 62 66 69 71 74 75 74 76 76 77 78 77 77 77 75 74 76 75 74 75 76 76 77 78 75 76
33 35 43 49 54 56 60 62 63 66 69 73 74 75 75 76 76 77 78 76 77 77 77 78 76 77 76 76 76 77 78 77 75
32 37 41 49 53 54 57 60 62 64 66 68 73 74 75 75 76 76 76 77 76 78 78 77 78 77 77 76 76 77 77 76 72
36 39 43 49 50 53 54 57 62 62 65 65 66 72 73 74 75 75 75 77 77 77 78 78 76 77 78 77 76 76 77 77 76
35 39 41 44 45 48 53 58 64 66 64 64 65 67 69 72 75 75 75 76 78 77 78 78 77 77 78 77 77 76 76 76 77
36 40 41 43 46 51 57 61 65 67 64 66 66 69 69 71 75 76 76 77 77 78 78 78 78 78 77 78 77 73 76 75 76
34 36 35 37 39 48 53 57 64 66 68 66 68 70 70 73 75 77 77 78 78 78 78 78 78 78 77 77 74 68 66 73 75
35 35 35 37 38 40 50 53 60 62 68 69 68 71 72 73 75 76 77 78 78 78 78 78 78 77 77 77 77 65 64 67 74
36 36 37 37 33 38 45 42 47 59 61 72 71 72 72 73 74 76 77 78 78 78 78 78 78 78 78 78 77 66 62 65 74
37 37 37 36 35 36 48 42 47 53 61 67 71 72 73 73 75 75 77 77 78 78 77 77 77 77 78 78 77 65 62 64 72
42 37 37 38 38 38 40 48 43 46 50 61 70 71 73 74 76 76 76 77 78 78 78 77 75 76 77 74 78 67 61 63 71
56 56 55 53 52 50 52 51 48 60 59 59 66 70 72 75 76 77 77 78 78 78 78 76 77 77 77 77 76 77 60 59 73
57 58 57 54 54 57 60 57 58 67 68 69 72 72 73 75 77 74 73 78 78 79 78 77 77 77 76 75 77 69 63 58 62
59 59 57 50 52 62 58 61 63 68 73 75 74 75 76 76 77 77 76 77 78 75 77 74 74 73 73 73 74 75 62 57 58
59 59 61 62 63 62 61 67 69 69 72 73 74 76 77 76 77 76 76 72 73 72 71 72 72 70 71 71 72 72 74 70 64
60 63 66 65 66 67 68 71 72 72 72 72 71 72 71 72 71 73 75 75 70 70 73 68 69 70 70 69 69 69 66 68 73
65 64 65 67 67 67 67 68 68 70 70 73 73 71 70 68 67 68 70 70 72 59 60 57 52 48 58 69 57 55 52 53 53
63 66 65 65 66 67 68 68 66 68 70 70 70 69 70 65 63 62 63 66 67 66 64 52 52 48 49 47 50 50 48 48 51

GFSFLT1_sfc_dewp_036.txt.gz
Dewpoint
43 48 49 56 60 61 62 63 66 68 72 74 75 75 75 75 76 73 71 75 69 69 69 70 75 75 76 76 76 76 78 77 76
40 44 47 55 59 61 62 62 65 68 71 74 75 74 76 76 74 76 73 74 75 73 73 71 76 75 76 75 76 77 78 75 76
37 41 46 53 58 61 62 62 64 67 70 73 74 75 75 75 75 75 75 74 75 73 75 74 78 75 75 76 76 77 77 76 77
36 41 46 50 57 59 62 63 64 65 68 72 74 74 75 75 75 75 75 75 75 77 75 78 75 77 76 76 76 76 77 76 75
37 42 48 50 54 58 61 63 63 65 66 69 72 75 75 75 75 76 75 75 75 76 77 75 78 77 76 76 75 76 76 75 73
41 46 45 49 53 56 59 62 64 64 66 66 70 74 74 74 74 74 75 76 75 75 76 77 75 77 77 75 75 75 76 75 75
41 47 48 49 52 57 59 62 65 66 66 66 68 71 73 73 74 74 75 75 76 75 75 76 76 76 76 76 75 75 75 75 76
44 48 49 54 53 59 62 64 66 66 66 67 67 69 71 73 74 75 75 75 76 76 76 75 76 76 76 76 76 74 75 75 75
45 46 45 49 54 58 63 64 67 66 67 67 68 69 69 72 74 74 75 75 76 76 77 76 76 76 76 76 74 69 68 73 74
38 36 39 43 50 54 59 60 68 68 68 69 70 70 71 72 73 74 75 76 76 76 76 77 77 76 76 76 76 67 66 68 74
40 41 45 51 39 48 59 50 50 63 68 71 71 73 72 73 74 74 75 76 76 76 76 77 76 76 77 76 76 67 64 66 73
39 45 47 48 42 46 62 57 58 62 64 71 71 71 73 73 74 74 75 75 76 76 77 76 77 77 77 77 76 65 63 64 71
53 55 58 60 58 57 50 63 55 65 63 67 71 71 71 74 74 74 74 76 77 77 77 76 76 76 77 73 77 68 62 64 72
56 58 60 61 62 61 66 67 65 69 65 65 68 71 72 74 74 74 75 76 77 77 77 77 77 76 77 77 76 76 62 60 73
58 60 60 59 62 63 63 70 70 71 73 74 75 74 73 74 76 73 73 77 77 77 77 77 77 76 76 76 77 69 65 59 61
60 62 63 61 60 64 65 71 73 71 77 78 77 78 77 76 77 76 75 77 77 76 77 76 76 75 75 75 75 76 63 59 58
60 65 64 67 68 69 71 72 71 75 76 77 78 79 79 78 77 76 76 74 75 75 74 75 75 75 74 73 74 75 75 72 64
59 62 67 68 70 71 72 74 75 74 76 77 76 77 77 78 75 76 76 76 73 75 75 73 74 74 73 72 73 71 60 62 73
61 65 68 69 69 69 69 69 70 71 72 75 77 75 73 72 72 72 74 75 75 63 63 57 50 50 61 73 57 50 51 54 56
61 65 68 68 69 69 70 70 68 69 72 72 74 74 76 72 69 71 73 72 73 73 59 49 49 46 46 48 48 47 48 49 49

GFSFLT1_sfc_dewp_039.txt.gz
Dewpoint
51 53 54 55 57 58 59 60 65 68 69 70 71 72 70 69 73 71 68 72 68 68 69 71 71 74 73 73 73 74 75 74 74
50 52 54 56 57 58 58 60 65 67 70 70 71 72 72 71 70 74 69 67 72 66 69 70 72 73 74 73 73 73 74 74 73
46 49 52 57 57 58 59 59 64 67 70 71 71 71 72 72 70 70 73 69 69 72 67 69 72 72 73 73 73 74 74 74 74
41 48 52 57 58 58 59 59 63 65 68 71 72 72 71 72 72 70 72 72 70 73 70 72 72 73 73 73 73 74 74 73 73
38 45 48 57 59 59 59 59 61 64 66 70 71 72 72 72 73 73 71 72 73 69 74 71 74 74 73 74 73 73 75 73 73
32 45 49 55 58 59 59 59 60 62 64 68 70 72 72 72 72 73 72 72 72 74 70 74 71 75 74 73 74 74 73 74 73
40 47 48 54 56 59 60 60 60 61 63 65 69 71 72 72 73 73 73 72 72 71 74 72 75 72 75 74 74 73 74 73 73
44 46 50 52 55 57 60 61 61 62 63 64 66 70 71 72 73 72 72 73 73 73 71 73 73 74 73 74 73 73 73 73 73
40 43 48 49 54 57 59 61 62 63 63 64 65 68 70 72 72 72 72 73 73 74 74 72 73 73 73 73 74 69 68 72 73
38 38 41 42 42 52 61 63 63 63 64 64 65 66 68 70 72 72 72 72 73 73 73 74 73 72 73 73 73 66 66 68 73
40 44 44 43 43 46 50 61 64 64 64 66 66 66 67 69 71 72 72 72 72 73 73 73 74 74 73 74 73 66 64 66 72
56 57 58 59 58 57 57 54 54 66 65 66 68 67 68 69 71 71 72 72 72 73 73 73 73 74 74 74 74 64 63 64 71
57 59 59 59 59 59 59 59 59 64 66 65 67 68 70 71 71 72 71 72 72 73 73 73 73 73 75 72 74 66 62 64 72
59 61 61 61 60 60 61 61 59 61 62 67 67 68 71 73 73 72 72 72 73 73 73 74 74 74 74 75 74 74 61 60 72
60 59 64 63 60 59 60 60 61 61 59 66 68 70 71 71 72 72 73 74 74 74 74 74 74 74 74 75 75 67 63 59 61
58 59 59 66 67 68 68 61 62 62 69 70 72 70 71 72 73 73 71 74 74 75 75 75 75 74 74 74 75 75 62 59 58
57 59 60 65 67 69 72 72 73 72 73 71 69 72 74 74 74 75 73 75 74 74 75 75 74 75 74 74 74 75 75 72 65
59 59 61 64 66 68 69 70 70 71 71 72 74 70 75 74 75 74 75 73 75 74 74 73 75 75 74 74 74 71 60 61 70
59 60 61 63 65 67 68 68 68 67 68 70 72 73 74 74 73 74 75 75 72 52 54 54 52 50 65 60 53 48 47 47 48
51 61 62 63 65 66 66 66 66 67 68 70 68 69 72 71 70 72 73 74 73 66 56 47 46 49 48 48 47 46 45 45 46

GFSFLT1_sfc_dewp_042.txt.gz
Dewpoint
55 54 56 56 58 57 59 64 65 65 66 67 69 69 69 69 69 69 68 67 66 66 69 69 71 73 73 73 73 73 72 72 73
53 55 55 55 58 58 59 63 65 66 66 66 69 69 69 70 71 69 69 68 68 66 69 71 71 73 72 73 73 73 73 72 72
50 55 55 55 57 58 59 61 64 66 66 66 67 69 69 68 69 72 70 68 69 71 67 70 71 71 73 72 72 72 72 73 72
51 53 54 55 56 58 58 60 63 66 67 66 67 68 70 69 68 68 72 70 68 68 70 67 70 71 72 73 72 72 72 72 74
50 53 54 55 56 57 58 59 62 64 68 67 68 69 70 71 71 69 69 72 70 69 69 70 68 72 72 73 73 72 72 72 73
37 50 54 54 56 57 58 58 61 65 66 68 69 69 70 71 71 71 70 69 73 71 69 70 71 73 72 73 73 73 73 72 72
39 49 53 56 56 57 58 58 60 63 65 69 70 70 71 70 71 72 72 70 70 73 72 68 72 73 73 73 73 72 72 73 73
42 48 52 56 57 57 59 59 59 62 64 67 70 70 71 71 71 72 73 72 71 71 72 73 70 72 73 73 73 73 73 72 72
47 45 52 56 57 58 59 59 59 61 63 65 68 70 70 71 72 71 72 73 73 71 71 71 73 72 73 73 73 69 68 71 72
40 46 53 56 57 58 59 59 59 60 62 64 67 69 69 71 71 72 72 72 73 73 72 71 70 71 72 72 73 66 66 68 72
54 53 50 46 50 58 63 63 61 61 62 63 64 66 69 70 72 72 72 72 72 72 73 73 72 71 71 72 72 65 64 66 72
58 57 58 57 57 57 55 63 63 62 63 64 64 65 66 70 71 72 72 72 72 72 72 72 73 73 73 71 72 64 62 64 71
60 64 61 58 57 57 56 60 56 63 63 64 64 64 66 67 70 71 72 72 72 72 72 72 72 73 73 71 73 64 61 64 71
57 60 65 66 64 61 58 59 59 64 64 64 65 66 66 68 68 70 71 72 72 72 72 72 72 72 73 73 73 73 60 60 72
57 57 63 66 69 70 69 62 59 57 60 64 68 68 70 69 70 69 70 71 71 71 71 72 72 72 73 73 74 65 60 59 61
58 58 59 64 67 69 70 70 70 70 70 69 69 69 69 70 71 72 72 71 71 71 72 72 72 73 73 73 74 75 61 58 59
55 59 59 62 65 66 68 69 69 69 69 71 72 66 71 70 71 71 71 73 73 73 73 73 73 73 73 74 75 75 75 69 64
44 55 59 62 63 64 66 68 67 67 66 68 69 71 70 72 72 71 72 68 68 73 74 73 74 75 75 75 74 73 63 65 71
43 46 59 61 62 63 64 67 65 65 66 68 68 68 71 73 72 72 73 67 61 51 49 49 52 55 66 56 54 49 49 50 49
47 48 57 60 62 63 65 66 65 66 68 69 67 66 65 69 71 73 73 73 66 61 56 48 46 47 48 50 49 48 48 47 48

GFSFLT1_sfc_dewp_045.txt.gz
Dewpoint
54 57 59 59 59 61 61 62 63 64 65 65 66 67 67 67 66 66 66 67 67 66 67 68 69 71 71 71 72 72 71 71 71
54 53 55 57 59 59 60 62 62 64 65 65 66 67 67 67 67 67 67 67 67 66 67 69 69 70 72 72 72 72 71 71 71
52 53 55 55 58 58 59 62 63 64 64 65 66 67 67 68 68 68 68 68 67 66 67 69 69 70 71 72 72 72 72 71 71
51 54 55 54 56 58 58 62 63 64 64 65 66 67 67 68 68 68 68 69 68 69 67 69 70 71 71 72 72 72 72 72 72
47 53 55 54 55 57 58 58 62 64 64 64 65 67 68 68 69 69 70 70 68 68 70 68 69 71 71 72 72 72 71 71 72
40 50 53 54 55 56 58 58 60 63 64 65 64 66 68 68 67 68 69 71 71 69 68 69 68 70 71 71 72 72 72 71 71
29 46 51 54 55 55 57 58 59 62 64 65 65 66 67 68 69 69 68 68 70 71 70 69 70 69 70 71 72 72 72 72 71
29 43 50 53 55 55 57 58 59 62 64 66 66 67 67 68 70 70 70 69 69 70 71 70 70 70 71 71 71 72 72 72 72
33 48 52 54 55 55 57 57 58 61 64 66 67 67 68 69 69 70 71 71 70 69 70 72 70 69 70 71 72 68 68 70 71
44 45 51 53 54 55 56 58 58 61 64 66 68 68 69 69 70 70 71 72 72 71 70 70 71 71 70 70 71 66 66 68 71
60 55 52 53 55 56 57 58 58 60 63 65 68 69 69 70 71 70 71 71 72 72 71 70 70 70 71 71 71 65 64 66 71
62 64 57 56 58 59 60 59 59 60 62 64 66 67 69 70 71 71 71 71 71 72 72 72 71 71 70 70 71 63 63 64 71
60 65 66 60 57 59 61 61 61 61 62 62 64 66 68 69 70 71 71 72 71 71 72 72 72 72 73 69 70 63 61 64 71
58 61 66 69 68 61 59 59 61 61 61 62 62 64 65 68 70 71 71 71 72 72 71 72 71 72 72 73 72 71 60 59 71
57 58 62 66 69 69 68 61 63 64 65 67 66 66 65 66 68 70 71 71 71 71 72 71 71 71 72 72 73 66 61 59 61
47 58 60 63 65 68 69 69 69 68 68 71 68 68 67 67 68 68 69 70 71 71 71 71 71 71 71 71 73 73 62 59 59
42 49 59 61 63 64 66 67 66 66 67 68 70 69 68 70 70 70 69 70 70 70 71 71 70 71 71 72 73 74 73 68 65
48 49 55 61 61 62 64 66 65 65 67 68 68 68 69 69 70 68 70 65 65 70 71 69 71 71 72 73 73 73 68 70 72
49 53 56 60 61 62 63 65 64 65 68 68 67 66 66 66 70 70 69 64 60 49 47 46 49 53 67 61 55 52 51 50 51
49 48 53 59 60 62 63 64 64 65 67 67 65 64 66 65 65 71 70 66 64 59 54 48 45 45 48 51 50 46 45 45 46

GFSFLT1_sfc_dewp_048.txt.gz
Dewpoint
59 60 60 60 61 61 62 63 63 65 65 65 65 66 67 68 67 66 67 68 68 67 68 69 72 72 73 72 73 73 73 72 72
57 57 58 61 61 62 62 62 63 64 65 65 66 65 67 67 67 67 67 68 69 68 69 69 71 72 72 73 73 73 73 72 72
54 56 56 58 61 61 62 62 63 64 65 65 65 66 66 66 67 68 68 69 68 68 68 70 70 71 72 73 73 73 73 72 72
52 54 55 58 60 61 61 62 63 64 64 65 65 66 67 67 67 68 68 68 69 69 68 69 70 71 71 71 72 73 73 73 73
53 54 56 56 56 59 60 61 62 63 64 64 65 67 67 67 68 68 68 69 69 69 68 69 70 71 71 72 72 72 72 72 73
44 53 55 56 55 56 59 60 61 63 64 64 65 67 67 67 67 68 69 69 70 70 70 69 69 70 71 71 72 73 73 73 72
31 39 54 55 56 55 57 60 62 64 64 65 65 66 67 67 68 68 69 70 70 70 70 70 70 70 71 71 72 73 73 73 72
43 38 36 52 56 56 58 60 62 64 64 65 65 66 67 67 68 69 69 70 71 72 70 69 70 70 70 71 71 71 73 73 73
59 51 39 42 55 56 58 60 60 63 65 65 66 66 66 68 69 69 69 69 70 71 72 71 71 70 70 70 70 67 67 71 72
60 61 49 39 53 56 57 59 60 62 65 66 66 66 67 68 69 70 70 70 70 70 70 72 72 71 71 71 72 65 65 67 72
58 63 61 53 54 56 58 59 59 62 64 67 67 67 68 69 69 70 71 71 71 71 70 70 71 72 71 71 71 64 63 66 72
58 61 66 57 57 58 60 60 61 63 65 66 68 68 69 69 70 70 71 71 71 72 71 71 70 71 72 72 72 63 62 65 71
58 61 66 64 61 61 60 61 61 63 64 66 68 69 69 70 71 71 70 71 71 72 73 72 72 71 72 69 72 64 61 63 71
52 60 64 67 63 62 62 62 62 63 64 65 67 69 70 71 71 71 72 72 72 72 72 73 73 73 73 73 71 71 60 59 71
49 56 61 65 68 68 66 64 63 64 65 67 67 68 69 70 71 71 71 72 73 73 72 72 72 72 73 73 74 65 61 58 60
53 55 60 62 65 66 67 69 69 69 70 70 68 67 68 69 71 71 72 72 72 72 72 72 72 72 72 72 73 74 61 59 58
54 57 58 60 62 64 65 66 67 67 69 71 70 70 69 69 69 69 71 72 72 72 72 71 72 71 71 72 73 74 74 70 66
49 54 59 60 61 63 64 66 66 68 69 69 69 70 70 71 71 70 70 69 68 72 72 69 71 72 72 73 73 73 68 69 73
49 49 55 59 61 63 64 65 66 67 69 68 68 68 68 68 71 70 71 65 61 49 48 48 49 53 67 67 57 58 54 52 53
49 49 52 58 61 62 63 65 65 65 65 66 66 65 66 67 65 72 69 67 66 63 54 46 44 44 50 54 56 47 45 45 46

GFSFLT1_sfc_dewp_051.txt.gz
Dewpoint
59 60 60 61 62 63 65 66 67 67 68 70 70 71 72 73 73 69 68 71 67 67 66 68 73 74 74 75 75 75 75 73 73
57 59 60 61 62 63 65 66 67 68 69 70 70 69 71 72 72 72 70 72 72 68 72 67 71 73 74 74 74 75 75 73 74
54 58 60 61 61 62 64 64 66 67 68 69 70 70 70 70 71 72 72 72 72 72 70 71 70 73 73 73 74 75 75 73 74
49 56 59 60 62 63 64 64 65 66 67 69 69 69 70 70 70 70 71 71 71 72 71 72 72 73 73 73 73 74 75 75 74
47 54 58 60 61 62 63 64 65 65 66 66 68 69 70 70 71 71 70 71 71 73 73 72 72 73 73 73 73 73 74 73 72
45 54 56 59 58 61 62 64 65 64 66 64 65 68 68 69 70 70 71 72 72 72 72 73 71 72 73 73 73 73 73 73 73
37 45 55 58 59 62 64 65 67 67 66 65 65 66 67 69 70 70 70 72 73 72 73 73 72 72 73 73 72 73 73 73 73
51 50 45 55 59 62 64 66 67 67 67 68 67 68 68 69 71 71 72 72 73 73 73 73 73 73 72 72 71 69 72 73 73
58 59 59 56 52 61 63 64 66 67 67 68 69 69 69 70 72 72 72 73 73 74 73 73 74 73 72 72 69 65 66 71 72
58 59 61 62 61 53 62 62 66 66 68 68 69 70 70 71 72 72 73 73 74 74 74 73 74 73 72 73 74 64 64 67 71
57 60 61 63 63 57 59 60 61 66 67 70 70 70 71 72 72 72 73 73 73 74 73 74 73 73 74 74 73 64 63 65 72
50 58 62 65 65 60 61 63 65 67 68 69 69 70 71 71 72 72 73 73 73 73 72 73 73 73 74 74 74 63 62 65 72
53 60 63 66 64 58 62 65 64 66 66 68 69 70 71 72 72 73 73 74 74 74 73 73 71 71 74 71 74 64 61 64 70
58 62 64 67 64 64 66 66 65 67 68 68 69 69 70 72 73 73 74 75 75 74 73 73 73 73 74 74 73 74 60 59 71
57 60 64 66 67 65 65 67 67 68 69 71 72 72 72 73 74 71 71 75 74 74 75 74 74 74 73 73 74 66 62 58 60
55 58 62 65 66 68 69 67 67 68 70 71 72 73 74 73 74 73 75 74 74 72 74 71 72 71 71 71 72 74 61 58 57
48 55 61 65 66 67 68 70 71 72 72 71 71 72 73 73 73 73 74 72 72 71 71 71 71 71 71 71 72 73 74 72 68
49 52 59 63 65 66 67 69 69 70 71 73 71 71 70 71 71 72 72 73 71 71 73 69 71 71 71 71 71 72 68 70 73
51 52 57 57 56 63 66 67 67 68 68 68 70 70 71 70 69 70 70 71 67 48 49 49 50 53 64 72 60 56 54 52 54
50 52 55 56 55 56 60 64 63 62 64 68 69 68 69 68 72 74 72 71 68 68 57 46 44 44 51 52 59 53 50 48 48

GFSFLT1_sfc_dewp_054.txt.gz
Dewpoint
55 56 58 59 61 61 63 64 65 66 69 72 72 72 74 75 74 68 68 71 67 66 65 65 70 73 74 75 74 74 75 72 71
52 55 57 59 61 62 63 64 67 68 71 71 72 70 74 75 74 73 70 74 71 67 71 66 69 71 73 73 74 74 75 71 73
46 52 56 58 61 62 63 63 64 67 68 71 71 70 71 71 71 73 73 72 73 72 70 71 70 71 71 71 73 74 75 72 74
42 50 55 56 59 61 62 63 64 65 67 69 69 71 71 71 70 71 72 71 72 73 72 72 73 72 71 71 72 73 75 74 72
41 45 52 56 58 60 61 63 63 64 65 66 68 70 72 72 72 72 70 72 71 73 73 73 73 73 72 71 71 73 74 73 71
42 45 48 54 56 59 60 62 64 63 64 63 65 69 68 69 70 70 71 72 72 74 73 73 72 72 73 72 71 73 74 74 73
39 44 50 53 55 57 61 63 67 67 64 63 63 66 66 69 70 70 70 73 74 72 74 74 73 73 73 72 71 71 72 72 73
42 41 42 48 53 58 64 65 68 68 65 66 65 68 66 69 72 72 73 74 75 74 74 74 74 73 73 73 71 67 71 71 71
51 50 52 51 52 57 60 63 66 68 69 67 68 70 69 71 74 74 74 75 76 76 75 75 75 73 73 72 68 64 64 69 70
53 55 57 59 59 58 56 61 64 66 70 69 70 72 72 73 75 75 75 75 76 76 76 75 76 73 73 74 73 63 63 66 69
56 57 58 61 61 61 63 56 57 64 67 71 72 73 73 73 75 75 76 76 76 77 75 75 75 74 75 75 74 64 62 65 71
58 59 61 62 63 64 66 64 59 62 65 69 71 72 73 74 74 75 74 75 75 75 75 74 74 74 75 75 76 63 62 65 71
59 61 63 65 66 66 65 66 57 59 64 67 71 72 73 74 75 75 75 75 76 76 75 74 72 73 75 71 75 65 61 65 70
57 61 64 66 68 66 64 64 57 65 66 67 70 70 71 73 75 75 76 77 77 76 75 74 75 73 75 76 74 74 60 59 72
52 60 66 66 66 64 62 63 63 69 70 70 72 72 72 74 75 72 71 77 76 75 75 76 76 75 73 72 74 66 61 58 61
50 58 63 67 67 67 66 66 66 68 73 73 73 73 74 73 73 73 75 75 75 73 75 72 72 71 71 70 70 73 61 58 58
51 55 54 61 68 69 70 71 69 70 72 72 72 73 73 73 73 73 73 72 72 71 70 71 69 70 69 69 70 70 72 71 66
52 55 57 57 59 66 67 69 70 70 72 72 71 72 72 73 72 73 73 73 70 71 73 66 70 69 69 69 69 70 67 68 73
53 55 56 57 59 60 63 64 66 68 71 71 73 70 69 69 68 71 71 71 70 49 49 49 49 51 61 70 63 59 58 57 54
54 55 55 57 58 58 61 62 63 64 68 70 70 70 72 71 68 70 71 71 71 68 60 48 47 46 50 52 53 53 53 50 49

GFSFLT1_sfc_dewp_057.txt.gz
Dewpoint
52 54 54 55 57 59 62 63 65 67 71 74 75 74 75 74 75 67 67 70 66 64 62 64 76 74 73 74 74 74 76 72 71
50 53 54 57 57 58 61 64 66 68 71 73 74 72 75 75 74 72 67 71 74 68 71 65 68 72 73 73 73 75 76 70 75
50 55 54 55 58 59 60 61 63 67 69 72 73 73 74 73 74 75 73 73 75 73 73 74 70 72 71 73 74 74 77 73 74
43 49 52 54 57 59 60 61 62 64 67 70 71 72 73 73 73 73 73 74 75 75 75 75 75 74 73 73 73 74 77 77 74
39 43 49 53 54 57 60 61 62 63 64 65 69 71 73 73 73 72 71 73 74 76 76 75 76 75 75 73 72 75 76 73 72
40 42 45 50 52 55 59 61 63 62 63 63 65 70 70 71 72 72 72 74 74 75 76 77 73 75 76 75 73 75 75 76 75
37 43 46 46 51 55 59 62 66 66 63 63 63 65 67 70 72 72 72 74 75 75 76 77 76 76 76 75 74 73 73 74 75
39 40 42 46 48 58 65 65 68 68 65 66 65 67 67 69 72 73 74 74 75 75 76 76 77 77 76 76 73 69 73 74 74
40 42 43 44 50 54 57 61 67 69 69 68 67 69 68 70 73 74 74 74 75 76 76 77 77 76 76 76 70 65 65 71 72
47 50 50 52 53 52 54 57 63 66 70 69 70 71 71 72 74 74 75 75 76 76 77 77 77 77 76 76 76 64 63 65 70
55 55 56 57 57 57 58 55 56 62 66 72 71 72 73 73 74 75 75 76 76 77 77 77 77 77 77 77 76 64 61 64 72
58 59 60 61 60 60 62 62 59 59 64 71 71 72 73 74 74 75 76 76 76 77 77 77 76 77 78 78 77 63 61 64 71
58 60 62 64 64 64 64 65 64 62 59 67 71 72 73 75 75 76 76 77 77 77 77 76 74 75 77 74 78 65 61 64 70
56 59 63 65 68 66 67 67 66 67 63 65 70 72 73 76 76 77 77 78 78 78 77 75 77 76 77 78 76 77 60 59 73
53 57 57 61 68 67 67 67 67 70 70 68 73 73 74 76 77 74 74 78 78 78 78 77 78 77 76 73 78 68 61 58 61
52 55 56 59 65 70 70 68 66 70 71 74 74 75 75 76 77 76 76 77 78 75 77 73 73 72 71 70 70 73 61 58 58
53 55 56 59 62 66 70 71 73 72 72 75 76 76 76 76 76 75 76 74 74 72 71 71 70 70 69 68 67 66 69 70 65
55 57 57 58 59 61 62 65 67 69 72 75 72 75 74 74 73 73 75 73 72 71 73 67 70 68 66 65 66 66 64 66 72
57 57 57 57 57 58 59 60 61 64 67 73 74 73 72 70 70 72 71 71 70 51 55 53 54 53 63 72 59 58 53 55 58
56 56 56 57 57 57 59 59 60 61 64 67 74 74 73 70 68 70 71 71 70 70 64 50 50 50 53 54 54 55 55 52 50

GFSFLT1_sfc_dewp_060.txt.gz
Dewpoint
56 54 55 57 60 61 62 62 64 66 70 71 72 73 71 73 75 70 71 74 70 74 70 70 75 76 76 77 77 77 77 77 76
59 59 58 57 59 60 63 63 64 67 70 72 73 72 73 71 73 73 69 74 75 72 75 73 74 75 76 76 77 77 77 75 76
57 59 60 61 58 60 62 63 65 66 69 71 73 73 73 72 70 73 73 71 75 73 75 74 76 76 75 76 77 77 77 75 76
56 56 62 66 65 59 61 63 64 65 66 71 73 73 73 73 72 71 71 72 70 74 73 78 76 77 76 75 75 77 77 76 76
55 58 62 64 63 60 60 61 63 65 66 67 71 73 73 73 73 71 71 69 73 74 75 75 77 76 77 75 75 76 76 75 72
53 56 58 59 61 62 59 60 63 63 65 65 69 72 72 72 72 72 71 71 70 73 74 76 74 76 75 76 75 75 75 76 75
38 53 60 59 58 63 61 62 64 65 64 65 66 69 71 71 72 72 71 73 71 73 74 74 75 75 76 75 75 74 74 75 75
41 42 50 47 54 60 62 65 66 66 65 66 66 68 69 71 73 72 73 72 73 71 73 74 75 75 75 76 75 72 73 74 75
56 46 42 51 55 59 63 66 67 67 67 66 67 68 69 71 73 73 73 73 73 74 73 74 75 75 75 75 73 68 66 71 73
58 57 52 58 59 59 63 65 67 68 68 68 69 69 70 71 73 73 73 74 73 74 74 75 75 75 75 75 75 65 64 67 72
56 60 59 60 57 60 62 67 68 67 69 71 71 70 71 71 72 72 73 73 74 74 74 74 75 75 75 75 75 66 62 65 71
60 59 59 61 60 61 66 66 66 67 68 69 69 71 71 72 71 72 73 73 73 74 74 74 74 75 75 75 75 65 63 64 70
56 60 59 62 64 64 65 66 65 66 65 70 70 69 72 72 73 72 73 74 74 74 74 74 74 74 75 73 76 66 62 63 70
54 55 59 60 62 65 68 70 68 68 67 67 71 71 71 74 75 73 75 75 75 75 75 75 75 75 75 76 75 75 60 59 72
53 55 56 58 60 65 71 74 72 70 70 69 72 74 73 74 75 73 73 76 76 76 75 75 75 75 75 75 77 68 62 58 60
53 55 56 57 59 62 64 68 72 73 73 73 72 76 74 75 75 75 75 76 76 75 76 75 75 74 74 74 74 76 63 58 57
52 56 57 56 57 58 60 62 65 69 70 75 75 72 75 75 75 75 75 75 75 75 75 75 74 73 73 73 73 73 75 69 64
53 57 57 58 58 57 57 59 63 64 66 69 73 75 75 75 74 74 75 74 75 75 75 73 74 73 72 72 72 71 66 69 71
56 56 56 58 57 56 57 57 59 61 63 65 70 75 74 73 73 74 74 73 71 53 58 55 57 58 68 70 58 53 51 52 57
55 55 55 56 57 57 57 57 57 59 62 62 66 71 76 73 70 72 73 73 72 70 62 49 48 50 55 60 57 54 51 50 51

GFSFLT1_sfc_dewp_063.txt.gz
Dewpoint
57 59 56 58 58 57 58 62 64 66 66 68 69 68 68 70 72 68 70 70 70 70 70 70 72 73 73 73 74 73 73 72 73
55 62 64 61 59 59 58 61 63 65 67 67 69 69 67 69 72 69 68 69 71 69 70 70 72 74 73 73 74 73 73 72 73
60 63 65 65 64 62 61 60 63 64 67 68 69 69 69 66 69 71 69 68 70 69 67 70 72 74 73 74 74 73 73 71 73
59 59 62 65 66 64 63 61 61 64 67 68 68 68 70 68 66 70 70 69 67 71 69 72 73 74 74 74 73 74 74 71 73
58 57 59 64 64 62 63 61 61 62 65 68 69 69 69 70 68 66 69 69 70 67 70 71 73 73 73 73 73 74 73 72 71
56 56 60 59 60 61 59 60 60 62 63 68 69 70 69 70 70 67 66 66 69 68 72 69 73 73 73 73 73 73 73 73 73
57 56 58 58 55 55 54 55 59 61 62 64 69 70 70 70 70 70 67 66 65 70 69 74 71 74 73 74 72 72 73 73 73
56 59 59 58 55 55 65 61 64 63 62 63 65 70 70 70 70 70 70 68 68 65 71 69 73 72 74 73 73 72 72 73 73
54 60 59 62 61 60 62 61 61 64 62 64 64 67 69 70 70 70 70 70 70 68 66 71 69 71 72 74 73 69 68 70 73
58 58 59 59 62 64 64 66 67 67 66 65 64 65 68 69 70 70 70 71 70 71 67 69 72 71 71 72 73 67 66 68 70
56 58 59 60 62 61 64 66 68 69 69 68 68 66 66 69 70 70 71 70 70 70 70 68 68 71 72 73 73 66 64 66 69
53 55 57 59 60 62 63 64 65 67 66 67 67 67 67 68 69 70 71 70 70 70 71 71 70 71 72 73 73 65 64 63 67
52 55 55 56 58 60 62 64 68 68 66 68 66 67 68 69 69 70 70 71 70 71 70 70 72 71 72 71 73 65 63 63 69
51 54 55 57 58 58 61 65 66 71 69 66 69 70 70 69 70 69 70 70 71 70 71 71 71 72 72 73 72 72 61 60 71
50 52 56 56 56 58 59 62 63 65 68 69 70 69 71 71 71 69 71 71 71 71 71 71 71 71 72 72 73 66 63 59 60
50 53 55 55 56 57 57 58 59 62 63 65 66 70 72 71 72 71 70 72 71 71 71 71 71 71 71 72 72 73 63 59 58
51 53 56 56 56 55 56 57 57 58 60 62 63 68 71 72 71 71 70 73 72 72 71 72 71 71 71 72 72 73 74 68 64
52 53 56 57 57 56 56 57 57 57 58 60 61 65 71 72 71 71 72 71 73 73 73 71 72 72 72 71 72 72 69 70 71
53 55 55 55 57 56 56 56 56 56 57 59 60 62 69 72 71 72 72 72 69 52 56 58 59 61 69 71 61 63 59 57 58
54 55 54 54 55 55 55 55 53 54 56 57 59 60 63 66 71 72 72 72 71 70 62 49 47 49 58 57 60 51 53 50 54

GFSFLT1_sfc_dewp_066.txt.gz
Dewpoint
57 58 56 57 55 57 60 61 62 66 68 67 67 67 67 70 69 68 68 69 69 69 70 71 72 72 72 72 72 72 72 71 71
57 58 58 57 56 57 61 61 62 63 68 67 66 66 66 67 70 70 68 69 69 70 69 70 72 72 72 72 73 71 72 72 71
57 58 63 59 58 58 60 62 62 63 65 67 68 67 66 66 67 70 68 69 69 70 69 70 71 73 72 72 72 72 72 71 71
54 61 62 62 63 63 61 62 63 63 64 65 68 68 67 65 65 67 71 68 67 69 69 70 70 72 72 72 72 71 72 70 70
54 60 61 62 62 63 63 60 62 63 65 65 65 68 68 67 65 66 68 70 67 67 69 70 72 72 72 72 72 72 72 71 71
56 59 58 57 58 62 61 62 60 62 64 66 66 67 67 68 66 65 65 68 69 67 67 69 73 72 72 72 72 72 73 72 71
59 61 62 62 61 61 60 61 61 60 63 66 66 67 67 68 69 66 64 65 67 69 67 67 71 72 72 72 72 72 72 72 72
59 60 62 63 63 62 62 62 62 62 62 64 67 67 68 67 69 69 67 64 65 66 69 68 68 71 72 72 71 71 71 72 72
56 58 60 60 60 60 62 61 64 65 67 65 67 68 68 69 68 69 70 69 65 66 65 67 69 71 71 71 72 67 67 70 72
54 57 60 61 60 61 62 64 65 66 66 68 64 68 69 69 70 70 70 70 69 67 66 64 67 68 71 72 72 65 65 68 71
53 55 56 57 60 61 62 64 67 68 69 69 68 68 69 70 71 71 70 70 70 69 68 66 64 68 68 70 72 66 64 66 70
52 55 56 58 59 60 62 64 66 69 68 65 64 65 67 68 70 70 70 70 70 70 70 69 66 67 71 69 69 63 63 65 70
50 54 56 57 57 59 61 63 64 66 68 66 64 67 68 68 68 69 70 70 70 70 70 70 70 67 67 69 71 64 62 64 71
49 52 55 57 57 58 58 61 61 63 65 66 67 68 69 70 69 68 69 70 70 70 70 69 70 69 69 69 69 70 61 60 71
46 51 54 56 56 56 58 58 59 60 61 62 64 64 66 68 71 69 69 69 70 70 70 70 69 70 71 70 71 65 62 59 61
47 51 53 55 55 54 55 56 56 57 58 60 61 62 64 66 70 72 71 69 69 70 69 69 70 69 69 70 71 72 62 59 59
46 50 52 55 55 56 56 56 56 56 55 57 58 60 62 64 67 71 71 70 69 69 70 69 69 70 70 70 71 72 72 69 65
48 50 51 54 54 54 55 55 56 55 54 56 56 58 60 62 68 72 71 70 70 69 70 69 69 69 70 70 70 71 67 69 72
49 51 52 52 55 54 53 53 53 53 53 54 54 57 59 61 63 66 72 71 69 53 55 57 57 58 66 70 64 60 58 56 56
51 52 53 51 53 51 50 50 51 51 52 53 53 56 57 59 59 64 71 71 71 70 61 49 51 52 56 57 64 53 53 54 52

GFSFLT1_sfc_dewp_069.txt.gz
Dewpoint
61 60 60 59 56 59 59 60 61 65 66 65 66 67 67 67 66 67 68 68 68 69 70 71 71 71 71 71 70 71 71 71 71
61 59 59 59 56 57 59 61 61 64 66 65 66 66 67 68 67 66 67 69 68 69 69 71 71 72 71 72 71 71 71 70 70
59 61 59 59 57 57 59 60 61 63 65 65 65 66 66 67 69 69 68 68 70 69 70 70 71 72 71 71 72 71 70 70 70
56 56 59 61 60 57 59 60 60 62 64 65 65 65 65 65 66 68 69 68 68 69 70 70 70 72 72 71 71 72 71 70 70
57 57 59 62 62 61 61 62 61 62 62 65 65 66 65 65 65 66 69 69 68 67 68 69 70 70 72 71 71 71 71 71 70
60 61 61 62 63 64 64 64 64 65 64 65 66 66 66 65 64 64 65 68 69 67 67 68 70 71 71 71 71 71 71 71 71
58 60 62 63 63 63 63 64 63 63 65 65 66 66 66 66 65 64 64 65 67 69 67 67 68 72 72 72 71 71 71 72 71
56 58 59 60 60 61 64 64 62 62 63 66 66 66 66 66 67 66 64 64 64 67 69 67 67 69 72 72 72 72 71 71 71
53 55 56 58 60 61 61 62 65 66 66 65 66 66 66 67 67 68 66 65 64 64 66 67 67 67 68 71 71 67 67 70 71
52 54 55 57 58 60 62 63 65 66 67 67 67 66 67 67 68 68 69 68 65 64 64 64 64 67 68 68 70 66 65 67 70
50 54 55 56 57 59 61 63 64 65 68 68 67 68 67 67 68 68 69 69 68 66 64 64 64 63 64 68 68 64 64 66 70
45 51 55 57 57 58 61 62 62 65 68 67 64 65 67 68 69 70 69 69 69 69 68 66 66 64 64 65 66 63 63 64 69
44 46 52 56 56 57 58 59 60 63 64 64 64 66 68 69 68 71 70 70 70 70 70 69 68 67 66 64 66 61 62 64 70
43 45 47 55 56 56 55 59 59 60 61 60 62 64 64 66 68 69 70 70 70 70 70 70 69 69 68 67 67 68 59 60 70
44 45 47 53 55 57 56 57 57 58 58 59 61 62 63 64 66 69 70 69 69 70 70 70 69 69 69 69 68 62 61 59 61
46 46 47 50 55 56 55 56 56 55 56 57 58 60 61 62 63 65 69 71 69 69 70 69 70 69 69 69 70 69 60 58 58
46 46 47 50 53 54 56 55 56 55 55 54 55 57 59 61 61 62 65 71 72 71 71 71 71 70 70 70 70 70 70 67 63
45 46 48 50 52 55 55 54 54 54 53 53 52 53 57 59 60 61 62 65 72 71 71 70 70 69 71 70 69 68 67 68 70
46 46 49 51 53 54 52 50 50 51 51 51 52 52 54 56 58 59 60 63 66 57 56 55 56 56 64 70 63 58 56 54 54
48 49 49 53 53 52 50 47 48 49 49 50 50 51 53 54 54 57 60 61 62 68 64 52 51 49 53 54 61 53 52 52 52

GFSFLT1_sfc_dewp_072.txt.gz
Dewpoint
60 60 60 60 57 59 60 62 62 64 65 65 66 68 68 68 69 68 69 68 69 69 70 71 73 73 72 73 72 71 72 71 72
59 62 61 60 58 59 60 61 62 64 65 65 66 67 68 68 68 68 68 70 70 69 71 71 73 73 73 73 72 72 72 71 72
58 62 61 61 59 58 60 60 61 63 65 65 65 66 67 67 67 68 68 69 70 70 71 71 73 73 73 73 73 73 73 72 72
60 58 61 61 61 58 60 60 61 62 64 65 65 66 67 67 68 68 68 68 69 70 71 71 72 73 73 72 72 73 72 72 72
59 61 60 62 64 62 62 62 62 63 63 65 65 66 67 67 67 69 69 68 69 70 70 71 71 72 73 73 73 72 73 72 72
57 59 61 62 63 64 64 64 64 64 65 66 66 67 66 66 66 67 68 69 69 69 69 70 71 71 72 73 73 73 73 72 72
54 56 58 60 60 62 64 66 66 66 65 66 67 66 66 66 66 66 66 68 69 69 69 69 69 70 71 72 73 73 73 72 72
52 54 55 57 59 61 62 64 66 66 65 66 67 66 66 66 67 67 67 67 68 69 69 69 69 69 71 72 73 72 73 73 72
50 53 54 56 57 59 60 63 65 66 67 67 66 66 66 68 68 68 67 67 67 68 69 69 69 69 70 71 71 68 67 71 72
45 47 52 55 56 57 59 61 63 64 65 68 68 67 67 68 68 68 68 68 67 67 67 68 68 68 69 69 71 65 66 68 72
42 44 46 50 55 57 58 61 61 61 66 68 67 67 68 68 68 68 69 69 68 67 66 66 67 68 68 68 68 64 64 66 71
42 44 45 48 52 57 58 59 59 60 64 64 65 66 67 69 69 68 69 69 70 69 68 67 66 67 67 68 68 61 62 64 70
42 42 43 46 48 54 56 56 59 59 62 62 62 63 64 65 67 70 70 70 70 71 71 69 68 67 68 65 67 61 60 63 69
42 43 44 47 48 51 55 57 58 57 59 59 60 62 64 64 66 67 70 71 71 71 71 71 71 69 69 69 67 67 58 59 69
41 42 44 47 47 49 53 57 58 57 57 59 59 60 61 64 65 65 67 68 70 71 72 71 71 71 70 70 70 62 59 57 60
39 41 44 46 47 48 51 55 57 55 56 57 56 57 59 60 63 64 65 66 67 70 71 71 71 70 70 70 71 70 59 57 57
39 40 44 44 45 48 51 53 56 55 55 55 54 55 56 59 60 62 63 64 66 67 71 71 71 71 70 70 71 71 71 65 62
40 44 44 46 46 46 49 54 55 53 53 51 50 52 54 57 59 59 59 61 62 64 67 69 71 71 71 71 70 70 67 67 70
44 44 45 46 46 47 49 53 53 51 51 50 49 49 51 54 56 56 57 59 60 56 55 53 52 54 65 71 63 58 54 53 52
45 46 47 49 49 49 51 52 50 48 48 48 48 48 50 52 52 53 56 58 58 59 59 54 51 49 51 51 59 53 50 50 52

GFSFLT1_sfc_dewp_075.txt.gz
Dewpoint
56 60 61 60 60 61 62 64 65 66 68 70 70 70 72 73 73 69 69 71 69 70 69 70 74 75 74 75 75 74 74 72 71
60 60 59 61 61 61 62 63 65 67 68 69 69 69 71 72 72 72 70 72 72 70 73 70 73 74 75 74 75 75 75 71 75
59 61 62 61 62 61 62 62 64 65 67 69 70 69 70 69 70 71 72 72 73 72 72 73 73 74 74 75 75 75 75 73 73
59 61 61 63 62 61 62 63 63 64 65 67 67 68 70 70 69 69 71 71 72 73 73 74 74 74 74 74 74 75 75 75 74
57 60 62 64 64 62 62 63 63 63 65 65 66 68 69 69 70 70 69 70 70 72 73 74 74 74 75 74 74 75 75 74 72
55 57 59 61 63 65 66 63 63 62 65 63 64 68 67 67 68 69 69 70 70 71 72 73 72 73 74 74 74 74 75 75 74
53 55 56 58 59 62 64 65 68 66 64 63 64 65 66 68 67 68 69 71 71 71 72 72 72 73 73 73 74 74 74 74 74
49 50 52 55 56 58 61 63 64 66 67 68 66 66 66 67 69 69 68 70 72 71 71 71 72 72 72 73 71 70 73 74 74
44 45 47 50 54 56 56 60 61 62 65 67 68 68 67 69 70 71 71 72 72 72 71 71 71 71 71 71 68 65 66 71 73
39 40 44 47 50 53 57 58 60 60 62 67 69 69 68 69 70 70 71 71 71 71 72 71 72 71 71 72 72 64 64 68 70
41 41 42 44 46 49 53 56 58 59 62 64 67 69 69 69 70 69 71 71 71 72 70 71 71 71 72 72 71 64 63 66 72
41 42 41 43 44 47 51 53 57 59 60 62 62 64 66 68 70 70 70 70 71 71 71 70 70 70 71 72 72 62 62 65 70
41 41 42 43 44 46 47 51 54 57 56 59 60 60 62 65 67 69 71 71 72 72 72 71 69 69 70 67 71 64 59 63 67
41 41 42 43 44 47 48 50 53 56 57 57 58 59 59 61 65 66 67 72 74 72 73 73 72 71 72 72 70 70 59 58 69
41 40 41 42 43 45 46 48 51 54 56 59 58 57 57 59 62 64 66 67 68 70 72 72 72 72 72 71 73 65 61 57 58
39 40 41 41 42 44 46 47 49 52 55 58 58 56 56 56 58 61 65 65 68 68 69 69 71 70 71 70 71 72 60 57 56
40 40 41 41 42 43 45 47 48 50 54 57 56 55 54 55 55 57 60 61 63 67 67 66 67 70 70 70 70 71 72 69 66
42 44 44 44 44 44 45 47 48 49 52 56 53 53 52 52 53 55 56 58 57 60 64 65 68 71 71 71 71 71 67 67 72
44 45 47 47 48 48 48 49 51 51 53 54 52 51 50 49 49 51 53 52 54 54 53 52 51 49 54 66 63 57 54 53 52
45 45 46 46 46 45 47 47 50 51 52 49 50 50 50 49 48 49 50 51 53 55 55 51 50 48 49 47 53 53 49 51 50

GFSFLT1_sfc_dewp_078.txt.gz
Dewpoint
52 59 60 59 60 61 62 63 64 66 68 71 72 72 73 74 74 70 69 70 66 66 66 68 72 74 72 72 73 73 74 70 68
60 57 60 60 61 61 62 63 65 66 68 70 71 70 72 73 74 73 69 71 70 68 71 67 71 73 73 72 72 73 74 70 71
61 60 62 60 61 61 62 62 64 66 67 69 70 70 70 70 72 73 73 71 71 71 69 72 70 73 73 73 73 74 75 71 72
60 62 63 64 61 62 62 62 63 64 66 68 69 70 70 70 70 71 72 71 71 72 71 72 73 74 74 74 73 73 75 74 72
58 60 61 63 65 65 62 63 63 63 64 64 67 69 71 70 72 71 69 71 71 72 72 72 73 74 75 72 72 73 75 73 70
55 56 57 60 62 64 66 66 65 63 64 63 64 68 67 69 69 69 70 70 71 72 72 72 71 73 75 74 72 73 74 74 73
51 53 55 56 58 60 62 65 66 67 66 64 64 64 66 68 69 69 70 70 71 71 72 72 71 72 73 73 73 73 74 74 74
49 49 50 52 54 57 59 59 62 64 66 67 68 67 66 67 69 70 70 70 71 71 72 72 72 71 71 72 71 69 74 74 73
43 44 45 48 50 53 54 57 59 60 62 65 69 70 69 69 70 70 71 71 70 72 72 73 73 72 71 70 66 64 65 70 72
42 41 42 43 44 47 50 53 56 58 60 63 64 69 70 70 71 71 71 72 72 72 72 72 73 72 72 72 72 63 63 66 69
44 44 43 43 41 44 47 47 51 58 60 62 62 62 63 65 70 70 72 73 73 73 72 72 72 72 73 73 72 63 62 64 70
43 43 42 43 42 44 48 48 49 53 56 59 62 60 61 62 64 67 70 71 72 73 73 72 72 72 73 73 74 62 62 65 69
41 42 42 43 43 43 45 48 47 50 51 54 58 59 61 62 63 64 65 70 72 74 73 72 71 71 72 69 73 65 60 64 68
42 42 43 43 44 44 46 47 47 49 52 52 56 58 59 59 61 64 65 66 69 73 75 76 74 72 73 74 71 72 59 58 70
42 41 42 42 43 44 46 47 48 49 51 54 57 57 58 59 59 57 62 66 67 67 70 71 74 75 76 72 75 66 62 57 59
41 42 43 43 42 44 46 47 48 49 51 53 55 57 57 57 58 58 59 61 64 67 68 68 70 73 73 75 72 72 61 58 57
41 43 44 45 46 46 47 48 49 50 51 52 53 55 56 55 55 55 57 55 56 58 61 63 64 64 72 73 75 75 70 72 68
42 44 44 45 46 46 46 47 48 50 52 53 51 53 53 53 50 52 53 54 54 54 55 56 60 63 66 67 71 74 61 62 75
43 43 44 45 45 46 46 46 47 49 50 52 53 53 49 48 48 48 49 50 51 49 48 48 48 48 53 61 56 55 54 51 53
41 42 44 44 45 44 45 45 46 47 49 49 48 49 51 48 48 48 48 49 49 49 49 48 47 46 46 46 50 48 50 47 48

GFSFLT1_sfc_dewp_081.txt.gz
Dewpoint
58 59 60 62 60 61 61 59 62 64 69 72 72 72 75 75 75 70 68 70 73 71 71 72 75 73 72 72 72 73 73 71 70
59 53 61 60 61 61 63 62 61 65 68 71 72 71 74 75 75 74 71 73 72 67 74 71 72 71 72 72 72 73 75 70 73
62 61 66 67 63 61 63 63 61 64 66 69 71 71 71 71 72 74 73 72 72 72 71 71 72 71 73 72 72 73 75 74 73
60 61 65 66 67 67 65 62 63 63 65 67 69 70 72 72 72 72 73 72 72 72 72 72 72 73 74 73 73 73 76 75 74
58 60 61 63 65 66 67 68 65 62 63 64 67 69 72 71 73 73 70 72 72 73 74 72 73 74 73 73 72 74 74 72 70
56 58 60 60 60 62 64 65 68 68 67 65 63 68 68 70 70 71 71 72 72 74 73 74 70 73 75 73 72 74 74 74 73
53 55 56 57 59 60 62 63 64 66 66 68 69 68 66 69 70 70 70 72 74 72 75 74 73 73 74 74 72 71 72 73 75
51 52 52 53 56 59 61 61 62 63 65 68 69 70 69 70 70 71 71 72 73 73 74 74 74 75 74 74 71 68 73 73 73
47 48 48 49 51 54 54 57 60 62 63 65 67 68 69 69 73 73 72 72 72 73 73 75 76 75 74 73 67 63 65 71 73
45 45 45 46 47 48 50 51 54 57 60 63 62 63 63 65 68 71 73 74 74 73 73 74 76 75 75 75 75 64 63 66 69
45 46 46 45 43 46 48 46 49 55 57 62 61 61 61 62 65 67 70 72 73 74 74 75 74 75 76 76 74 65 62 64 72
44 43 44 44 44 45 49 48 48 51 53 58 59 60 61 61 61 64 66 68 69 73 75 74 74 73 75 75 76 64 62 64 70
41 42 43 44 43 44 45 48 47 49 49 52 54 56 59 61 63 62 63 64 67 70 74 74 76 73 75 71 75 67 61 63 70
42 42 43 44 44 45 46 48 48 50 50 51 53 55 57 58 60 61 62 64 67 67 67 70 73 74 76 76 74 75 61 59 72
41 41 42 42 44 44 46 47 48 50 52 53 54 54 56 58 59 57 57 63 63 65 67 67 70 73 74 76 77 68 64 58 60
42 43 45 45 45 47 48 49 50 50 53 54 54 54 55 56 58 57 58 59 61 58 65 69 69 66 71 72 74 77 63 60 58
42 44 45 45 46 47 48 48 49 50 51 52 53 55 54 54 55 55 55 52 52 52 54 56 57 63 66 66 68 75 76 70 67
43 44 45 45 46 45 46 48 48 47 49 50 50 51 52 53 51 52 52 54 50 50 56 52 52 53 54 55 58 67 57 58 65
44 43 44 45 45 45 46 45 46 47 48 48 48 48 47 47 48 48 47 48 48 47 48 47 46 46 49 52 50 50 49 48 50
42 42 42 44 45 45 45 45 44 44 46 46 48 47 48 46 46 46 47 47 47 46 46 46 45 44 45 45 46 45 44 44 44

GFSFLT1_sfc_dewp_084.txt.gz
Dewpoint
60 60 67 66 61 63 64 61 64 67 72 73 74 73 75 76 76 73 73 74 75 70 72 73 75 76 76 77 76 75 76 77 75
61 65 65 65 64 63 64 61 64 67 72 73 74 73 75 76 76 76 72 75 76 74 74 72 75 73 75 76 76 76 76 75 76
60 62 67 67 68 67 64 62 63 67 72 73 73 73 74 74 75 76 76 77 77 78 75 73 72 73 72 76 76 76 76 75 75
60 61 64 67 67 66 68 66 64 65 70 72 73 73 73 73 74 75 76 75 76 76 77 74 72 66 70 75 76 76 76 75 74
60 61 61 64 66 66 65 66 69 70 68 67 70 72 74 74 75 74 74 75 75 77 76 77 77 75 75 76 75 75 75 75 73
58 59 61 62 63 63 64 64 65 67 70 70 71 71 72 72 73 73 74 75 75 76 76 76 74 75 76 76 76 76 76 75 75
55 57 58 59 61 62 63 63 64 65 67 68 70 72 70 72 73 73 73 76 76 75 76 76 75 76 76 75 75 75 75 76 76
52 52 54 55 55 57 61 62 63 64 66 66 69 70 70 71 72 74 75 76 75 76 76 75 76 76 75 76 74 71 74 75 75
49 50 50 52 53 54 56 59 62 63 64 64 66 66 66 69 72 72 74 75 75 76 76 76 76 75 75 75 70 66 66 71 72
47 46 47 49 49 51 52 53 58 62 64 64 63 63 64 65 67 69 70 71 74 75 75 75 75 75 76 75 75 67 64 65 72
47 46 46 46 46 49 50 48 52 59 61 64 64 64 63 64 64 66 68 70 69 70 73 75 75 74 75 75 75 66 64 65 70
45 45 45 45 45 48 53 49 53 56 57 60 59 60 63 63 63 64 64 66 67 68 69 70 73 74 75 75 75 66 62 65 72
42 43 44 44 44 45 47 50 48 51 50 55 56 57 60 62 63 64 64 65 66 69 69 69 71 72 75 71 74 67 63 64 72
43 43 43 43 45 46 48 49 49 52 53 53 54 55 57 60 62 63 64 65 67 67 68 70 69 71 73 74 73 74 62 60 73
41 42 43 43 45 46 48 50 51 52 55 56 57 57 57 59 60 59 58 63 64 64 65 67 68 69 70 74 75 67 65 59 58
43 44 45 45 46 48 50 50 50 50 54 55 55 55 57 59 59 59 61 62 61 60 63 63 66 65 66 66 66 70 59 59 59
43 45 46 45 46 46 48 50 49 49 52 54 53 54 55 54 54 57 58 56 55 56 54 56 58 58 57 57 60 69 67 63 62
44 45 45 46 46 46 46 47 48 47 49 50 48 49 50 51 50 52 53 55 55 55 58 52 53 54 54 53 53 58 52 53 59
44 45 45 46 45 45 46 45 46 46 47 47 46 45 45 45 46 47 48 49 50 49 47 45 44 44 48 53 50 47 46 45 45
42 43 44 44 45 45 46 46 44 45 46 46 45 43 45 43 43 44 46 48 48 48 49 46 44 42 43 44 46 45 44 43 43

GFSFLT1_sfc_dewp_087.txt.gz
Dewpoint
60 61 63 64 63 64 64 61 66 67 70 71 71 70 71 72 71 72 70 71 70 71 68 70 71 72 73 73 72 72 72 72 72
58 59 61 61 61 66 66 62 65 67 70 70 70 71 72 73 72 72 70 70 71 69 70 72 73 72 72 72 73 72 73 72 72
61 63 64 63 64 67 68 67 65 68 70 70 71 71 72 72 73 73 73 73 72 72 71 70 71 71 71 72 73 73 72 71 72
61 63 66 66 66 66 67 67 68 69 70 71 71 71 72 72 73 73 73 73 73 72 71 71 71 70 67 70 72 72 72 72 71
61 62 63 65 66 67 67 66 67 68 68 70 70 71 72 72 73 73 73 73 73 73 70 71 69 65 65 68 71 73 72 71 71
60 60 61 62 63 64 65 65 66 67 68 68 70 69 71 71 73 72 72 73 73 73 73 72 72 71 71 72 72 72 73 72 71
58 59 60 61 61 62 62 64 65 66 66 68 68 69 68 69 70 71 72 74 73 74 74 73 72 73 72 73 73 73 73 73 72
55 54 55 57 59 60 62 63 64 65 65 67 67 67 68 67 70 71 72 72 73 73 73 73 73 73 73 74 73 72 73 73 73
51 52 53 53 56 57 59 61 62 63 63 65 66 65 66 67 69 70 69 71 72 72 71 72 73 73 73 73 72 69 68 70 71
47 48 49 50 50 52 53 57 61 62 63 63 64 64 64 65 67 68 68 69 68 68 69 73 72 72 72 73 73 66 65 65 68
46 46 47 48 48 49 48 51 55 62 63 63 63 63 63 63 64 65 66 67 67 68 68 69 71 72 73 73 73 66 64 66 67
46 45 45 46 50 50 50 50 51 53 56 54 54 55 59 62 63 63 63 64 66 67 67 68 68 69 71 71 72 67 63 64 69
44 44 44 45 48 48 49 49 52 51 53 53 52 53 54 57 61 60 60 62 63 65 66 68 70 70 70 69 72 67 62 63 70
44 45 43 46 48 48 50 52 52 53 52 53 54 54 55 56 56 57 58 59 61 62 62 64 66 68 69 70 70 67 60 59 66
44 45 45 47 49 50 50 50 50 51 51 53 53 53 53 54 55 56 55 58 60 58 58 60 63 66 66 69 66 59 57 57 57
46 46 46 47 48 49 49 50 49 48 50 51 51 50 50 52 52 51 52 57 57 55 57 55 57 59 57 60 62 66 57 57 59
46 46 45 46 46 47 47 48 48 48 48 48 47 47 47 48 48 47 48 50 51 51 52 53 51 52 52 52 52 58 64 59 59
46 46 46 45 45 46 46 45 46 46 46 47 45 45 45 44 44 44 44 46 48 48 48 48 46 47 51 50 50 52 55 50 51
46 45 45 45 46 45 44 45 45 44 45 46 45 43 43 43 42 43 44 45 45 46 46 45 44 43 43 45 47 46 45 44 44
43 44 44 44 44 44 44 43 43 44 45 44 44 44 43 42 43 41 41 42 42 41 43 44 44 43 43 43 43 42 42 42 43

GFSFLT1_sfc_dewp_090.txt.gz
Dewpoint
61 61 63 64 66 66 66 64 67 69 68 67 68 70 70 70 71 70 69 69 69 70 70 69 70 72 72 72 71 71 71 71 70
61 60 61 63 66 67 67 65 66 68 70 68 69 70 70 70 71 70 69 70 69 71 70 70 70 71 72 72 72 70 71 71 71
62 63 62 63 64 67 68 67 67 67 70 70 69 71 70 71 71 71 71 70 70 70 70 70 71 71 71 71 72 71 71 71 70
62 63 65 66 65 67 68 68 68 69 70 69 70 71 71 71 72 72 72 72 72 71 70 70 70 70 71 70 71 72 71 70 70
62 62 64 66 66 67 66 67 68 68 69 69 70 70 70 70 72 72 72 72 72 72 70 70 69 69 68 68 70 71 71 70 71
61 62 62 63 64 66 66 66 67 68 69 69 69 69 69 70 70 71 72 72 73 72 70 69 70 67 65 64 68 70 72 71 70
60 61 62 62 62 62 64 65 66 67 68 69 68 68 67 66 69 69 70 72 72 71 72 70 70 70 70 70 71 71 71 72 70
56 57 59 60 61 62 63 64 64 66 67 68 68 67 67 68 69 69 70 71 71 73 72 73 72 72 72 72 72 71 71 72 72
53 54 56 57 59 60 61 62 63 63 64 66 66 66 66 67 68 68 69 69 68 70 71 71 72 72 72 71 72 68 66 70 72
52 50 51 52 54 57 60 61 61 62 63 64 63 64 64 66 67 67 67 67 68 67 68 69 70 70 71 72 72 68 65 66 68
48 48 49 49 50 48 50 58 61 62 62 62 63 63 63 64 64 64 65 65 65 67 67 67 68 69 70 70 72 67 64 65 68
45 47 48 48 48 48 50 52 54 53 53 53 53 54 56 59 61 62 63 64 65 65 67 66 67 69 68 69 70 64 62 64 69
43 44 47 47 48 50 51 52 53 52 52 51 51 53 55 56 57 58 61 60 61 64 63 65 66 67 68 66 71 58 58 62 68
42 44 47 50 50 49 49 51 50 50 51 51 52 52 52 53 52 53 55 56 57 59 57 58 61 64 66 67 64 61 57 58 64
44 47 49 48 48 49 49 49 48 48 49 50 49 49 48 49 50 50 50 51 54 55 54 56 56 57 65 67 65 59 57 56 57
45 46 48 48 47 47 47 47 47 46 47 47 46 46 46 46 46 46 46 48 48 48 49 48 47 48 50 51 53 61 55 55 55
44 45 46 46 46 46 45 45 45 45 46 45 45 45 44 44 44 44 44 45 47 46 46 45 45 46 46 46 47 52 54 58 55
44 44 44 45 45 44 44 44 43 44 45 44 43 43 43 42 42 42 43 44 45 44 44 44 44 44 45 45 46 46 45 45 46
44 45 45 45 44 43 44 43 43 43 43 43 43 42 42 42 41 41 41 41 41 43 43 43 42 41 43 43 44 43 42 41 42
45 44 44 44 44 43 43 42 42 43 43 43 42 40 40 39 39 39 40 41 41 40 41 42 41 41 41 41 41 41 40 40 42

GFSFLT1_sfc_dewp_093.txt.gz
Dewpoint
62 62 64 64 66 64 64 65 67 66 66 65 66 68 69 70 69 68 68 69 69 69 69 70 70 71 71 71 70 70 67 70 70
61 62 62 63 66 67 67 65 68 67 66 65 66 67 69 69 70 69 68 69 69 68 70 70 69 70 71 70 70 70 70 70 70
61 62 63 65 66 67 68 67 67 68 69 66 68 68 69 69 70 70 70 69 70 69 70 69 69 70 71 71 72 71 70 70 70
61 62 64 64 66 68 68 68 69 69 70 69 69 70 69 69 70 70 71 70 70 70 69 69 70 70 70 70 71 71 70 70 70
62 63 65 65 66 67 67 68 68 68 69 69 69 68 69 70 70 71 71 70 71 71 71 69 70 70 70 70 70 71 71 71 70
61 62 63 65 66 66 66 67 68 68 68 68 68 68 68 69 69 70 71 71 71 72 72 70 69 69 68 67 66 68 71 71 70
59 61 62 63 64 65 66 66 67 68 69 69 68 68 68 69 68 68 69 70 70 71 72 71 69 69 67 66 65 66 69 71 71
59 60 61 61 62 63 64 65 66 68 68 68 68 67 67 67 69 69 69 68 68 70 71 72 71 70 70 70 70 70 71 71 71
57 58 60 61 61 62 63 64 64 65 65 66 68 67 66 67 67 67 67 67 68 68 68 69 70 70 70 70 72 69 67 70 71
53 55 57 58 60 61 62 62 63 63 63 64 64 64 65 66 66 65 65 66 66 66 67 67 68 69 70 71 70 66 64 66 70
50 50 50 50 52 57 61 62 61 57 56 57 60 61 63 64 64 64 64 64 64 65 65 66 66 68 68 68 69 63 62 65 67
48 48 48 49 52 53 53 52 53 53 52 52 53 54 56 57 59 62 63 63 64 64 63 63 64 66 67 67 68 59 59 65 68
47 47 48 52 53 52 51 50 51 50 50 51 51 51 52 52 52 55 57 58 60 63 61 61 62 64 67 64 65 58 60 63 66
46 48 49 50 50 50 50 49 49 49 48 48 48 48 48 49 49 50 50 53 56 55 55 56 62 65 66 65 63 62 55 56 61
48 48 48 49 48 47 48 48 47 46 46 47 46 46 46 46 45 46 47 48 48 48 48 47 48 48 49 56 56 55 54 54 55
48 48 47 46 46 46 46 46 45 44 45 46 45 44 44 43 44 44 45 46 46 45 44 44 45 45 45 46 48 48 49 49 50
47 47 46 46 45 44 44 44 45 45 44 44 43 42 42 42 42 42 43 44 44 43 42 43 44 43 45 45 45 44 43 43 45
45 45 46 45 44 44 43 43 44 43 43 43 42 41 41 40 40 41 41 41 42 41 42 43 42 42 43 42 42 41 43 42 42
44 44 45 44 44 44 42 42 42 42 42 42 41 40 39 39 39 39 40 40 40 43 43 42 41 41 41 41 42 41 40 39 40
46 44 44 43 43 43 42 42 42 43 42 42 40 39 38 38 39 39 39 39 39 38 39 41 40 39 40 40 40 39 38 38 39

GFSFLT1_sfc_dewp_096.txt.gz
Dewpoint
61 59 61 63 64 65 65 65 66 67 67 66 67 69 69 70 69 69 70 70 70 70 71 71 72 72 73 72 72 70 70 71 71
61 61 62 63 64 66 66 65 67 67 67 67 67 68 69 70 70 69 69 70 71 70 71 71 71 71 73 72 72 72 72 72 72
61 62 62 63 64 64 66 66 68 67 67 67 67 68 69 69 70 70 70 70 70 70 71 71 71 70 71 72 72 73 72 72 72
61 62 64 65 66 67 67 68 69 70 69 68 68 68 68 70 70 71 71 70 71 71 71 71 71 71 71 72 72 73 73 72 72
62 63 63 64 66 67 67 68 69 69 69 69 69 70 70 69 70 71 71 71 71 72 72 71 70 71 71 72 71 72 72 72 72
62 63 64 64 65 66 66 67 68 69 69 68 68 68 69 70 70 71 71 71 72 72 73 72 71 71 70 70 70 71 71 72 72
61 63 64 65 65 66 66 67 68 68 68 68 68 68 68 68 69 69 70 70 71 71 72 72 71 71 70 70 70 69 68 71 72
60 61 62 63 64 65 66 66 68 68 68 68 68 67 68 68 68 68 69 68 68 69 70 71 72 71 71 70 69 68 70 71 71
58 60 61 62 63 64 64 65 66 66 66 68 68 67 67 67 67 67 66 68 68 68 68 68 69 70 71 71 72 66 66 71 72
57 59 60 61 62 62 62 63 64 63 64 65 65 65 66 66 65 65 65 66 66 65 66 67 68 68 68 68 70 63 63 66 71
55 55 55 58 61 61 58 57 57 56 57 58 58 59 60 63 65 64 64 63 63 63 63 64 65 66 68 69 67 60 61 64 69
50 52 53 56 56 57 55 54 53 53 53 52 52 52 54 55 58 60 61 62 63 62 61 61 62 65 68 64 61 57 59 65 69
49 52 56 54 53 53 53 53 51 49 49 48 49 50 50 53 53 55 57 59 61 62 61 62 64 65 65 61 61 53 55 59 62
50 52 52 52 52 50 49 49 48 48 47 47 47 48 48 49 50 51 52 52 53 53 52 53 60 59 57 55 53 51 50 52 57
49 49 49 49 48 48 48 48 47 46 46 47 47 47 47 48 48 48 49 50 47 48 50 50 50 50 50 52 51 48 47 48 50
48 48 47 47 46 46 46 46 46 45 46 47 46 45 45 45 46 46 48 46 46 45 46 47 47 46 46 47 45 43 45 45 47
47 46 46 46 45 44 44 45 45 45 45 45 44 44 43 43 43 43 44 44 44 44 43 43 42 43 43 44 41 40 40 41 42
47 46 46 46 45 44 44 44 44 44 44 44 42 41 41 41 41 41 42 43 43 42 43 42 40 40 41 39 37 37 40 40 39
46 46 45 44 44 43 43 43 43 43 44 43 41 39 40 40 40 40 39 39 38 41 42 40 39 40 39 39 39 40 39 38 39
46 46 44 44 44 43 43 43 43 43 43 42 41 39 39 39 38 37 37 37 36 34 36 40 39 39 39 38 38 38 37 37 38

GFSFLT1_sfc_dewp_099.txt.gz
Dewpoint
61 60 61 62 64 65 66 66 66 67 68 70 70 71 73 73 75 70 71 72 70 70 71 70 73 74 75 75 74 73 73 71 72
61 61 60 63 64 65 66 66 66 68 69 69 69 69 71 73 73 72 71 73 73 71 73 72 73 73 74 74 75 74 74 70 73
60 61 61 63 65 65 67 67 68 68 68 69 69 69 70 70 72 73 73 73 73 73 73 73 73 73 73 74 74 75 75 73 74
61 61 62 64 65 66 67 68 67 69 70 69 68 69 70 72 71 72 73 73 73 73 74 74 74 74 73 72 73 74 75 75 73
62 63 63 65 66 66 67 67 69 69 71 70 71 70 71 70 72 73 73 73 73 73 73 74 74 74 74 74 74 74 74 74 73
62 64 64 66 66 67 67 67 68 69 70 70 70 71 71 72 72 72 71 72 73 73 74 75 73 74 74 74 73 72 73 74 73
62 64 64 65 66 67 68 68 69 69 69 69 69 70 70 70 72 73 72 73 73 74 74 74 74 74 74 73 73 72 71 71 73
62 63 64 65 66 67 68 68 69 69 69 68 68 68 68 68 70 70 71 72 72 72 73 73 74 74 74 73 72 69 71 71 71
61 62 63 65 65 66 66 68 68 69 69 68 68 68 68 68 68 69 70 70 70 70 71 71 72 72 72 72 72 62 64 70 73
59 61 62 63 64 64 65 66 67 67 67 68 68 68 68 68 67 67 67 68 68 68 69 69 70 70 71 70 66 61 61 66 74
59 60 60 61 59 59 59 60 61 61 62 61 61 62 63 66 66 65 65 66 66 66 67 67 68 70 66 63 59 58 59 65 73
57 58 58 58 57 57 57 56 56 57 56 56 57 57 57 60 63 63 64 64 64 64 65 66 69 65 64 59 57 54 57 64 65
56 56 56 56 56 56 55 55 55 52 53 54 54 54 54 56 58 60 60 62 62 63 65 66 64 59 56 53 53 51 52 59 62
57 55 54 54 53 53 53 53 53 53 52 51 51 52 52 54 56 57 57 57 57 59 59 57 56 55 54 50 50 48 48 50 55
53 52 51 50 50 49 50 51 50 49 49 50 51 51 52 53 54 51 52 55 55 54 55 55 55 54 50 48 46 46 46 46 48
52 51 51 50 48 48 49 50 50 50 50 50 50 50 50 51 51 50 52 52 52 50 52 49 49 48 48 46 43 42 44 44 46
51 51 50 49 49 48 49 49 49 49 49 49 49 49 49 48 48 48 48 46 46 46 45 45 46 45 44 41 39 38 39 38 42
49 50 49 49 49 48 48 48 48 47 48 48 46 46 45 45 44 46 45 45 44 41 41 42 41 41 39 38 36 36 39 39 41
50 48 48 48 49 48 47 46 46 47 47 46 44 43 41 41 40 40 40 40 37 41 41 40 39 38 38 36 38 39 39 38 39
50 50 49 48 47 47 47 46 46 46 46 45 45 42 42 38 38 36 37 36 35 34 37 39 39 38 37 37 37 38 37 37 38

GFSFLT1_sfc_dewp_102.txt.gz
Dewpoint
60 59 59 58 60 63 64 65 66 66 69 71 72 71 73 74 72 67 66 68 68 67 70 68 73 71 71 72 72 73 74 71 69
59 60 59 60 61 64 64 65 67 67 69 70 71 70 72 72 71 71 70 70 73 68 71 71 73 73 72 72 72 73 74 69 72
59 61 60 60 61 63 66 64 66 67 68 70 70 70 70 69 70 71 70 71 70 72 75 74 73 73 73 71 72 72 73 71 72
58 61 61 63 64 64 65 66 67 68 68 69 69 69 69 70 69 69 71 70 70 71 71 74 73 75 74 74 73 73 74 73 71
59 60 62 64 66 67 68 69 69 68 71 68 69 69 70 71 68 69 68 70 70 72 71 74 73 73 75 73 71 73 73 72 69
62 62 62 63 65 66 67 67 68 69 70 71 71 70 69 73 68 68 69 70 70 72 71 71 71 73 73 71 72 73 73 72 71
63 64 64 64 65 66 67 67 68 69 69 71 70 71 71 69 69 68 68 71 72 71 74 71 71 71 72 72 71 72 73 72 72
62 63 63 64 65 66 68 68 68 69 69 69 69 70 70 71 72 73 72 72 73 73 73 72 74 72 73 73 71 68 73 73 72
62 63 63 64 65 66 67 68 69 69 70 69 70 68 68 69 70 71 71 72 72 73 73 74 74 73 73 73 70 62 64 70 72
62 62 63 64 65 66 67 68 69 70 69 70 69 68 68 68 69 69 70 70 71 72 72 72 72 72 72 70 68 59 62 65 73
61 62 63 62 63 63 64 67 69 69 69 69 69 68 68 69 68 67 67 67 68 69 70 70 70 70 68 65 60 57 60 66 73
60 61 61 60 61 60 59 59 62 62 62 63 64 64 66 67 66 65 65 65 66 67 70 68 69 67 64 61 57 52 55 66 70
59 59 58 57 57 57 57 56 58 57 59 59 59 59 59 61 63 66 66 66 65 64 68 65 62 60 58 55 53 49 51 59 63
57 56 56 55 54 55 55 56 57 55 55 55 57 58 59 59 61 62 62 62 64 64 59 57 58 55 51 51 51 48 47 49 56
54 53 52 52 51 52 53 53 54 55 54 56 58 57 57 58 58 55 58 62 62 61 59 58 57 55 52 49 49 45 45 46 48
52 52 51 51 50 50 53 56 56 53 53 54 55 55 56 56 56 56 58 60 57 55 58 56 55 53 50 47 47 45 45 45 46
52 52 52 50 51 50 50 52 53 54 53 52 53 54 54 53 53 53 53 50 52 52 52 52 51 50 49 46 43 39 39 40 43
53 53 53 52 51 50 50 51 51 49 50 50 50 50 49 50 48 50 50 46 45 44 42 41 48 46 44 44 43 37 39 39 39
53 51 52 52 52 50 50 48 48 49 49 50 49 47 45 43 44 44 43 42 39 40 39 39 38 38 39 36 38 38 38 38 39
54 53 52 52 50 50 50 48 48 48 48 48 49 47 47 42 41 40 41 40 37 35 36 39 38 37 38 37 37 37 37 37 38

GFSFLT1_sfc_dewp_105.txt.gz
Dewpoint
53 55 59 58 58 61 64 66 66 64 68 71 71 71 72 72 72 67 67 69 74 73 69 70 73 72 71 71 72 72 73 70 68
56 58 55 60 57 61 68 63 66 66 68 70 70 70 71 72 72 71 71 72 73 71 71 72 72 71 71 71 72 72 74 70 72
58 58 59 59 59 60 60 62 63 67 67 68 69 69 69 69 70 71 71 71 72 72 72 72 74 72 72 72 72 73 74 72 73
56 59 60 65 64 66 61 63 63 65 66 69 68 68 68 68 67 67 69 68 69 71 71 72 72 73 72 72 72 73 74 75 74
58 61 61 63 66 66 67 67 67 67 70 68 68 69 70 69 69 68 66 68 68 71 72 73 72 73 72 71 72 73 73 73 69
59 62 61 61 62 67 68 69 70 69 70 70 71 69 69 72 69 68 68 67 68 70 72 72 71 72 72 72 71 71 72 73 71
59 61 62 63 65 65 68 69 70 71 72 72 72 71 72 73 71 68 68 73 70 69 72 72 71 72 73 72 71 71 71 71 72
63 63 62 63 66 68 69 68 69 68 68 70 70 71 71 71 74 72 72 72 73 70 71 71 71 71 74 71 69 67 71 71 72
62 63 64 65 66 67 68 68 68 69 68 69 70 70 70 72 73 72 73 73 72 73 72 72 72 71 72 72 70 62 63 68 72
62 63 64 65 65 66 67 68 69 68 69 69 70 69 69 70 70 70 71 72 73 73 73 73 73 72 72 72 70 58 61 66 71
62 63 65 66 66 67 68 70 71 71 71 70 70 70 69 69 69 69 70 70 69 70 71 72 73 72 70 67 61 55 56 62 73
62 63 63 62 63 64 63 65 69 70 70 70 69 69 69 69 69 68 67 67 67 68 70 71 69 68 66 63 60 51 53 62 72
61 61 60 59 59 59 58 58 62 62 62 64 64 65 67 67 68 66 66 66 66 66 67 66 66 61 60 56 57 48 50 56 66
59 58 57 56 55 56 57 57 58 57 58 58 61 61 61 62 64 64 66 66 67 65 64 62 61 58 56 54 52 47 47 49 58
55 53 53 53 53 54 55 56 56 55 56 58 60 61 62 61 62 59 61 65 63 61 61 60 59 58 55 52 51 47 46 48 49
52 52 52 52 52 54 56 56 55 54 56 58 59 59 61 61 59 60 62 62 62 60 60 59 59 56 54 51 49 48 46 45 46
52 53 52 52 52 50 51 54 55 55 56 58 56 56 58 57 56 57 59 58 58 58 57 56 56 55 53 50 48 46 43 43 45
54 53 53 52 51 51 51 51 51 53 54 56 56 57 56 54 51 53 51 45 40 47 41 39 44 51 50 47 47 40 39 39 39
53 54 54 52 52 50 50 50 51 52 51 53 54 54 54 52 46 47 45 45 41 39 39 39 39 39 41 37 38 38 39 38 39
54 53 53 54 53 52 52 51 50 49 50 53 52 51 51 50 42 42 44 43 41 38 35 39 38 37 38 37 36 38 37 37 38

GFSFLT1_sfc_dewp_108.txt.gz
Dewpoint
56 58 59 63 58 63 65 66 67 68 72 72 73 73 75 76 75 73 72 72 73 69 71 72 75 76 76 76 77 76 77 76 75
54 57 56 58 61 62 65 67 68 69 72 72 73 72 74 75 76 75 76 74 73 70 72 73 73 75 76 75 75 76 76 75 74
56 55 56 60 61 64 65 66 65 68 71 71 72 72 72 72 73 74 75 72 72 70 69 73 69 71 75 76 74 74 76 75 73
57 54 55 61 64 67 67 63 65 67 69 71 70 71 71 72 72 72 73 74 73 69 71 73 69 75 76 76 74 74 76 76 75
57 57 59 61 65 68 70 69 69 66 69 69 69 69 72 72 72 71 71 73 72 76 75 77 76 76 76 76 75 76 76 74 74
60 61 63 62 64 66 67 65 67 70 71 71 73 71 73 72 72 72 73 71 73 75 76 76 74 76 76 75 75 74 76 76 76
61 63 63 62 62 66 67 65 64 68 72 72 72 73 73 71 74 71 72 71 73 74 76 75 75 75 74 75 75 74 74 75 74
62 63 62 63 63 65 71 69 70 71 70 72 72 72 72 71 72 73 75 74 75 75 75 74 74 75 75 75 71 65 67 74 74
63 62 62 66 67 68 68 70 69 70 70 70 70 70 70 72 72 72 72 72 74 75 75 75 75 74 74 74 66 61 63 67 74
64 64 65 67 66 67 70 70 71 70 70 70 70 70 70 71 72 72 71 71 73 72 73 74 74 74 74 69 63 57 58 63 70
64 65 66 67 67 68 69 71 71 71 71 71 70 70 70 70 70 70 69 69 71 72 71 70 70 70 69 67 56 53 55 59 69
63 62 62 62 62 63 63 65 70 71 71 71 70 70 70 69 69 68 69 68 68 69 69 69 67 66 63 63 55 50 53 60 74
59 59 59 59 60 60 59 60 64 64 64 67 68 69 69 70 70 68 67 67 67 68 68 66 64 61 57 57 54 48 50 58 71
57 57 56 56 57 57 57 58 60 59 60 59 62 63 65 67 68 68 67 67 69 67 64 62 60 57 55 52 52 48 49 50 59
54 53 54 54 54 55 56 56 57 57 57 59 61 62 62 62 63 62 65 64 62 63 62 61 60 58 57 53 52 48 47 48 49
52 52 53 54 53 53 55 56 55 55 57 59 59 59 60 61 64 63 64 62 62 60 61 59 59 59 56 55 55 51 46 46 47
52 52 52 52 52 51 52 53 54 56 57 58 57 58 59 59 59 56 51 52 57 55 48 56 59 60 57 54 54 51 48 49 53
54 54 53 50 49 50 52 52 52 54 54 56 56 57 56 57 55 55 48 40 41 43 39 39 44 44 45 50 51 40 40 39 41
53 54 54 51 52 51 52 52 52 52 54 56 55 55 54 55 57 56 52 50 40 39 39 39 38 38 42 36 38 39 39 38 39
54 54 54 54 52 52 53 52 51 52 51 52 53 53 51 50 50 54 53 52 47 42 36 39 38 38 38 38 37 37 37 37 38

GFSFLT1_sfc_dewp_111.txt.gz
Dewpoint
55 60 61 62 62 62 61 63 66 68 70 70 70 71 70 71 71 71 70 70 71 68 68 70 71 72 71 71 73 72 72 71 72
53 59 59 62 61 66 65 63 67 70 70 69 71 71 71 70 71 70 71 70 70 68 67 69 71 72 72 72 72 71 71 71 70
53 56 57 60 61 65 66 64 68 71 71 70 70 71 71 71 71 71 70 70 70 67 67 68 71 72 71 72 71 70 71 71 69
54 55 56 57 60 64 66 66 69 70 71 71 70 71 70 71 71 70 70 71 70 69 68 70 70 70 71 71 70 72 71 71 70
59 56 55 56 62 65 67 68 67 68 68 70 70 70 70 71 70 70 70 70 69 67 68 71 71 69 72 71 71 72 71 71 72
61 60 55 63 66 65 67 67 67 67 68 70 71 69 71 70 69 70 69 69 70 71 70 72 73 72 71 71 72 71 72 72 71
59 59 55 64 66 66 67 66 65 65 66 68 70 71 70 70 70 69 69 68 68 71 72 71 71 72 72 71 71 69 71 72 71
58 58 59 63 65 65 65 65 66 67 67 67 70 69 70 69 70 71 71 71 69 71 72 72 71 71 71 68 67 64 65 68 71
62 62 62 63 65 67 63 64 63 65 64 66 71 69 69 70 70 70 71 71 70 70 70 69 70 70 70 64 61 61 63 65 68
63 64 64 66 66 68 68 66 64 68 68 70 70 69 69 69 70 69 70 70 70 71 70 70 69 69 64 58 55 55 57 61 66
61 61 60 62 63 64 65 70 69 70 69 69 69 68 69 70 70 69 68 67 68 70 70 70 68 67 65 58 50 53 55 58 66
59 59 59 60 61 62 63 64 67 69 69 69 69 68 69 68 68 67 67 67 67 68 68 66 64 64 61 52 46 52 54 62 67
57 56 56 57 59 59 59 61 64 64 66 67 68 68 68 68 68 67 66 65 66 67 65 62 61 59 56 53 44 49 52 59 67
55 55 55 56 57 56 58 59 60 60 61 61 63 65 68 68 67 67 66 65 65 65 61 58 56 53 49 48 47 44 49 51 55
53 53 54 54 54 55 56 58 59 58 58 60 62 62 62 63 64 65 64 63 64 61 60 59 58 56 51 48 43 47 48 49 49
52 53 53 53 53 53 54 55 55 56 57 59 60 60 60 62 59 61 62 61 61 60 60 59 58 56 54 53 49 44 49 48 49
51 52 52 52 51 50 51 52 53 55 56 58 57 58 59 58 52 48 43 45 45 44 43 48 49 57 54 52 51 45 43 44 47
53 52 51 49 50 50 51 51 51 53 54 55 56 56 56 57 54 49 40 39 44 38 36 38 40 44 43 51 43 36 38 38 37
52 52 51 51 50 49 49 50 50 50 51 54 53 53 53 54 58 54 46 43 41 40 39 38 38 39 36 34 39 38 38 38 38
53 52 52 50 49 49 51 49 48 50 52 51 47 47 46 50 53 53 50 47 44 38 36 39 38 38 38 39 36 36 36 37 38

GFSFLT1_sfc_dewp_117.txt.gz
Dewpoint
56 59 59 59 60 60 61 64 64 66 66 67 67 68 69 69 68 68 67 67 68 68 68 68 69 70 71 70 71 69 71 70 71
55 57 59 59 60 62 62 64 65 65 65 66 68 67 69 69 69 69 68 68 67 68 68 68 68 71 70 71 70 71 70 70 70
54 56 60 60 60 62 63 63 66 67 67 66 68 68 68 68 69 69 69 69 68 68 67 66 68 70 70 70 70 71 70 70 69
54 56 60 61 61 62 63 65 66 67 68 67 67 68 68 68 69 69 69 68 68 68 67 66 66 67 69 68 70 71 70 70 69
55 56 58 60 61 64 64 65 65 67 68 68 68 68 68 69 69 69 68 68 68 68 66 65 65 67 69 68 70 69 70 70 70
59 60 61 59 61 64 65 65 66 67 69 69 69 69 70 69 69 69 68 68 68 68 68 66 67 69 68 68 69 70 70 70 70
60 60 59 60 62 64 65 67 68 68 69 70 70 70 70 69 69 69 69 68 68 68 67 67 66 68 69 69 70 68 69 70 71
60 61 63 64 61 64 66 67 68 69 70 70 70 70 70 70 70 70 70 69 69 69 68 67 68 69 69 67 67 67 66 68 69
57 60 62 64 65 65 66 66 67 68 68 68 69 69 69 70 69 70 70 70 70 70 70 70 69 69 66 63 61 59 63 64 67
59 59 61 62 63 65 65 65 65 66 66 68 68 68 69 69 69 68 69 70 70 70 69 69 68 65 63 61 59 57 57 61 64
57 56 59 60 61 64 64 65 66 66 66 66 67 67 68 68 68 68 69 69 69 69 69 69 67 65 62 59 58 55 56 60 63
56 56 57 58 59 60 62 63 66 67 67 66 67 67 68 68 68 68 67 67 67 68 68 69 67 64 61 60 58 55 56 63 63
55 56 56 56 57 58 59 60 64 67 67 67 66 67 67 68 68 67 67 67 67 66 66 63 62 59 58 56 56 55 56 62 61
54 54 54 56 56 56 57 60 62 61 63 63 64 68 68 67 67 67 67 66 66 63 59 56 53 50 47 45 46 49 54 57 58
53 53 53 54 55 55 56 59 60 59 59 61 63 63 63 66 66 67 66 64 62 60 57 53 49 45 43 43 44 50 51 54 57
51 52 52 53 52 53 54 56 58 58 58 59 58 58 58 56 56 57 60 63 61 60 60 56 51 47 44 44 46 45 50 51 52
50 51 51 51 51 50 50 52 54 56 58 58 57 56 56 56 57 55 55 54 54 55 55 58 57 53 50 48 44 42 43 44 43
50 50 49 49 49 49 49 49 50 53 54 56 56 54 53 52 52 51 48 47 48 49 45 47 52 52 52 50 45 38 39 40 39
50 50 49 47 47 47 47 47 48 49 50 52 55 54 52 51 51 49 47 47 45 41 42 41 40 40 43 40 42 39 38 37 38
51 49 49 48 47 46 48 47 47 49 49 45 43 43 42 50 50 47 44 40 38 36 39 39 39 39 39 38 37 38 37 36 38

GFSFLT1_sfc_dewp_120.txt.gz
Dewpoint
57 56 58 59 59 61 62 63 65 65 66 66 68 69 69 69 69 69 69 69 69 70 70 70 71 71 72 72 73 72 73 71 71
56 57 58 59 59 61 61 63 64 66 66 66 68 68 69 69 69 69 69 69 69 68 70 69 70 71 72 72 72 73 72 71 71
55 58 58 59 59 60 61 62 64 66 66 66 67 68 68 69 70 70 70 69 69 69 69 69 70 70 71 71 72 72 72 72 72
54 58 59 60 60 61 62 64 64 65 67 66 67 68 68 69 69 70 70 70 70 69 69 68 68 70 70 71 71 72 73 72 72
55 59 61 60 61 62 63 65 64 66 67 67 66 68 68 69 69 70 69 69 69 70 69 68 68 68 69 70 70 72 71 72 72
57 60 61 62 62 62 64 65 66 66 68 68 68 68 68 68 69 69 69 69 69 69 69 68 67 68 69 70 70 71 71 71 72
59 60 61 61 62 64 65 65 66 67 68 69 69 69 69 69 69 69 69 69 69 69 69 69 68 69 70 70 70 71 71 71 72
60 61 62 61 62 63 65 66 67 67 68 70 69 69 69 69 70 71 71 70 70 70 69 69 69 68 70 70 70 68 68 69 70
58 60 62 64 64 66 66 67 67 69 69 69 70 69 69 70 70 70 70 70 70 70 70 70 69 70 70 68 65 61 64 66 69
57 58 60 62 64 65 65 65 66 66 66 68 68 68 69 69 70 70 70 70 70 70 70 69 70 69 66 64 63 58 60 61 66
56 57 58 59 60 61 64 66 66 66 66 66 68 68 68 69 69 69 69 70 69 69 70 68 68 66 65 63 62 57 57 59 63
55 56 57 57 58 59 61 62 65 66 66 66 66 67 68 68 69 68 68 68 68 69 69 69 68 66 64 63 61 57 58 63 64
55 55 56 56 57 58 59 60 62 66 66 66 66 67 67 68 68 68 68 67 67 67 67 66 65 62 62 60 61 56 57 62 63
54 54 54 56 57 57 57 60 62 63 64 63 64 66 68 68 68 68 68 67 66 64 63 61 60 58 57 55 55 57 56 59 62
53 52 53 53 55 55 57 58 60 59 59 60 62 62 63 65 66 67 66 64 62 60 60 57 56 56 55 50 51 52 56 57 56
51 51 52 52 52 52 53 56 58 57 58 58 58 58 58 57 57 58 61 62 61 59 58 56 54 53 46 46 48 49 51 52 53
50 51 51 51 50 50 50 51 54 56 58 57 56 55 55 55 55 55 55 54 55 56 58 59 57 56 54 52 52 48 47 47 50
49 49 49 49 48 48 48 49 50 52 55 56 55 55 54 53 54 52 50 48 49 50 46 49 54 55 55 51 46 39 40 41 42
50 48 48 47 48 48 48 49 49 48 50 55 54 50 49 51 51 49 50 50 48 46 46 46 44 44 47 45 42 39 38 37 37
50 49 48 47 46 47 48 48 48 49 49 46 45 44 51 49 48 44 42 41 41 41 38 40 39 39 40 42 42 39 37 36 38